Wetterdaten: Montag, 04.11.2013
Datum Zeit Temp. Aussen +5cm Feuchte Auss Luftdruck Regen Sonnenschein Regendauer UV Solar Windben
04.11.2013 00:00 7,9 C 6,1 C 86 % 999,6 hPa 0,0 l/m 0 min 0 min 0,0 UV-I 0 W/m 10,3 km/h (2 Bft)
04.11.2013 00:02 7,9 C 6,1 C 86 % 999,4 hPa 0,0 l/m 0 min 0 min 0,0 UV-I 0 W/m 7,7 km/h (2 Bft)
04.11.2013 00:06 7,9 C 6,1 C 86 % 999,4 hPa 0,0 l/m 0 min 0 min 0,0 UV-I 0 W/m 18,0 km/h (3 Bft)
04.11.2013 00:08 7,9 C 6,1 C 86 % 999,4 hPa 0,0 l/m 0 min 0 min 0,0 UV-I 0 W/m 7,7 km/h (2 Bft)
04.11.2013 00:10 7,9 C 6,1 C 86 % 999,3 hPa 0,0 l/m 0 min 0 min 0,0 UV-I 0 W/m 18,0 km/h (3 Bft)
04.11.2013 00:12 7,9 C 6,1 C 86 % 999,2 hPa 0,0 l/m 0 min 0 min 0,0 UV-I 0 W/m 10,3 km/h (2 Bft)
04.11.2013 00:14 7,9 C 6,1 C 86 % 999,2 hPa 0,0 l/m 0 min 0 min 0,0 UV-I 0 W/m 7,7 km/h (2 Bft)
04.11.2013 00:16 7,9 C 6,1 C 87 % 999,2 hPa 0,0 l/m 0 min 0 min 0,0 UV-I 0 W/m 12,9 km/h (3 Bft)
04.11.2013 00:18 7,9 C 6,1 C 87 % 999,2 hPa 0,0 l/m 0 min 0 min 0,0 UV-I 0 W/m 15,4 km/h (3 Bft)
04.11.2013 00:20 7,9 C 6,1 C 86 % 999,1 hPa 0,0 l/m 0 min 0 min 0,0 UV-I 0 W/m 10,3 km/h (2 Bft)
04.11.2013 00:22 7,9 C 6,1 C 86 % 999,0 hPa 0,0 l/m 0 min 0 min 0,0 UV-I 0 W/m 0,0 km/h (0 Bft)
04.11.2013 00:24 7,9 C 6,1 C 86 % 999,0 hPa 0,0 l/m 0 min 0 min 0,0 UV-I 0 W/m 7,7 km/h (2 Bft)
04.11.2013 00:26 7,9 C 6,1 C 86 % 998,8 hPa 0,0 l/m 0 min 0 min 0,0 UV-I 0 W/m 12,9 km/h (3 Bft)
04.11.2013 00:28 7,8 C 6,1 C 87 % 998,8 hPa 0,0 l/m 0 min 0 min 0,0 UV-I 0 W/m 2,6 km/h (1 Bft)
04.11.2013 00:30 7,8 C 6,1 C 87 % 998,8 hPa 0,0 l/m 0 min 0 min 0,0 UV-I 0 W/m 18,0 km/h (3 Bft)
04.11.2013 00:32 7,8 C 6,1 C 87 % 998,7 hPa 0,0 l/m 0 min 0 min 0,0 UV-I 0 W/m 15,4 km/h (3 Bft)
04.11.2013 00:34 7,8 C 6,1 C 87 % 998,6 hPa 0,0 l/m 0 min 0 min 0,0 UV-I 0 W/m 10,3 km/h (2 Bft)
04.11.2013 00:36 7,8 C 6,1 C 87 % 998,5 hPa 0,0 l/m 0 min 0 min 0,0 UV-I 0 W/m 7,7 km/h (2 Bft)
04.11.2013 00:38 7,8 C 6,1 C 87 % 998,6 hPa 0,0 l/m 0 min 0 min 0,0 UV-I 0 W/m 12,9 km/h (3 Bft)
04.11.2013 00:40 7,7 C 6,1 C 87 % 998,5 hPa 0,0 l/m 0 min 0 min 0,0 UV-I 0 W/m 7,7 km/h (2 Bft)
04.11.2013 00:42 7,8 C 6,1 C 87 % 998,5 hPa 0,0 l/m 0 min 0 min 0,0 UV-I 0 W/m 12,9 km/h (3 Bft)
04.11.2013 00:44 7,8 C 6,1 C 87 % 998,4 hPa 0,0 l/m 0 min 0 min 0,0 UV-I 0 W/m 28,3 km/h (4 Bft)
04.11.2013 00:46 7,8 C 6,1 C 87 % 998,3 hPa 0,0 l/m 0 min 0 min 0,0 UV-I 0 W/m 12,9 km/h (3 Bft)
04.11.2013 00:48 7,8 C 6,1 C 87 % 998,3 hPa 0,0 l/m 0 min 0 min 0,0 UV-I 0 W/m 15,4 km/h (3 Bft)
04.11.2013 00:50 7,8 C 6,1 C 87 % 998,3 hPa 0,0 l/m 0 min 0 min 0,0 UV-I 0 W/m 12,9 km/h (3 Bft)
04.11.2013 00:52 7,8 C 6,1 C 87 % 998,2 hPa 0,0 l/m 0 min 0 min 0,0 UV-I 0 W/m 18,0 km/h (3 Bft)
04.11.2013 00:54 7,8 C 6,1 C 87 % 998,0 hPa 0,0 l/m 0 min 0 min 0,0 UV-I 0 W/m 15,4 km/h (3 Bft)
04.11.2013 00:56 7,8 C 6,1 C 87 % 998,0 hPa 0,0 l/m 0 min 0 min 0,0 UV-I 0 W/m 15,4 km/h (3 Bft)
04.11.2013 00:58 7,8 C 6,1 C 87 % 998,0 hPa 0,0 l/m 0 min 0 min 0,0 UV-I 0 W/m 10,3 km/h (2 Bft)
04.11.2013 01:00 7,9 C 6,7 C 87 % 998,0 hPa 0,0 l/m 0 min 0 min 0,0 UV-I 0 W/m 25,7 km/h (4 Bft)
04.11.2013 01:02 7,9 C 6,7 C 87 % 997,8 hPa 0,0 l/m 0 min 0 min 0,0 UV-I 0 W/m 20,6 km/h (4 Bft)
04.11.2013 01:04 7,9 C 6,7 C 87 % 997,7 hPa 0,0 l/m 0 min 0 min 0,0 UV-I 0 W/m 15,4 km/h (3 Bft)
04.11.2013 01:06 7,9 C 6,7 C 87 % 997,6 hPa 0,0 l/m 0 min 0 min 0,0 UV-I 0 W/m 12,9 km/h (3 Bft)
04.11.2013 01:08 7,9 C 6,7 C 87 % 997,6 hPa 0,0 l/m 0 min 0 min 0,0 UV-I 0 W/m 18,0 km/h (3 Bft)
04.11.2013 01:10 8,0 C 6,7 C 87 % 997,5 hPa 0,0 l/m 0 min 0 min 0,0 UV-I 0 W/m 18,0 km/h (3 Bft)
04.11.2013 01:12 8,0 C 6,7 C 87 % 997,4 hPa 0,0 l/m 0 min 0 min 0,0 UV-I 0 W/m 20,6 km/h (4 Bft)
04.11.2013 01:14 8,0 C 6,7 C 87 % 997,4 hPa 0,0 l/m 0 min 0 min 0,0 UV-I 0 W/m 18,0 km/h (3 Bft)
04.11.2013 01:16 8,0 C 6,7 C 87 % 997,4 hPa 0,0 l/m 0 min 0 min 0,0 UV-I 0 W/m 15,4 km/h (3 Bft)
04.11.2013 01:18 8,1 C 6,7 C 87 % 997,3 hPa 0,0 l/m 0 min 0 min 0,0 UV-I 0 W/m 20,6 km/h (4 Bft)
04.11.2013 01:20 8,1 C 6,7 C 87 % 997,2 hPa 0,0 l/m 0 min 0 min 0,0 UV-I 0 W/m 18,0 km/h (3 Bft)
04.11.2013 01:22 8,1 C 6,7 C 86 % 997,1 hPa 0,0 l/m 0 min 0 min 0,0 UV-I 0 W/m 7,7 km/h (2 Bft)
04.11.2013 01:24 8,2 C 6,7 C 86 % 997,1 hPa 0,0 l/m 0 min 0 min 0,0 UV-I 0 W/m 12,9 km/h (3 Bft)
04.11.2013 01:26 8,2 C 6,7 C 86 % 996,9 hPa 0,0 l/m 0 min 0 min 0,0 UV-I 0 W/m 15,4 km/h (3 Bft)
04.11.2013 01:28 8,2 C 6,7 C 86 % 996,9 hPa 0,0 l/m 0 min 0 min 0,0 UV-I 0 W/m 10,3 km/h (2 Bft)
04.11.2013 01:30 8,2 C 6,7 C 86 % 996,8 hPa 0,0 l/m 0 min 0 min 0,0 UV-I 0 W/m 15,4 km/h (3 Bft)
04.11.2013 01:32 8,3 C 6,7 C 86 % 996,7 hPa 0,0 l/m 0 min 0 min 0,0 UV-I 0 W/m 20,6 km/h (4 Bft)
04.11.2013 01:34 8,3 C 6,7 C 86 % 996,6 hPa 0,0 l/m 0 min 0 min 0,0 UV-I 0 W/m 18,0 km/h (3 Bft)
04.11.2013 01:36 8,3 C 6,7 C 86 % 996,5 hPa 0,0 l/m 0 min 0 min 0,0 UV-I 0 W/m 12,9 km/h (3 Bft)
04.11.2013 01:38 8,3 C 6,7 C 86 % 996,6 hPa 0,0 l/m 0 min 2 min 0,0 UV-I 0 W/m 15,4 km/h (3 Bft)
04.11.2013 01:40 8,4 C 6,7 C 86 % 996,5 hPa 0,0 l/m 0 min 2 min 0,0 UV-I 0 W/m 18,0 km/h (3 Bft)
04.11.2013 01:42 8,3 C 6,7 C 86 % 996,4 hPa 0,0 l/m 0 min 2 min 0,0 UV-I 0 W/m 15,4 km/h (3 Bft)
04.11.2013 01:44 8,3 C 6,1 C 87 % 996,3 hPa 0,0 l/m 0 min 2 min 0,0 UV-I 0 W/m 18,0 km/h (3 Bft)
04.11.2013 01:46 8,3 C 6,1 C 87 % 996,3 hPa 0,0 l/m 0 min 2 min 0,0 UV-I 0 W/m 15,4 km/h (3 Bft)
04.11.2013 01:48 8,2 C 6,1 C 87 % 996,3 hPa 0,0 l/m 0 min 2 min 0,0 UV-I 0 W/m 12,9 km/h (3 Bft)
04.11.2013 01:50 8,2 C 6,1 C 87 % 996,2 hPa 0,0 l/m 0 min 2 min 0,0 UV-I 0 W/m 15,4 km/h (3 Bft)
04.11.2013 01:52 8,1 C 6,1 C 88 % 996,0 hPa 0,0 l/m 0 min 2 min 0,0 UV-I 0 W/m 15,4 km/h (3 Bft)
04.11.2013 01:54 8,1 C 6,1 C 88 % 996,0 hPa 0,0 l/m 0 min 2 min 0,0 UV-I 0 W/m 12,9 km/h (3 Bft)
04.11.2013 01:56 8,0 C 6,1 C 89 % 995,9 hPa 0,2 l/m 0 min 2 min 0,0 UV-I 0 W/m 18,0 km/h (3 Bft)
04.11.2013 01:58 8,0 C 6,1 C 89 % 995,8 hPa 0,0 l/m 0 min 2 min 0,0 UV-I 0 W/m 12,9 km/h (3 Bft)
04.11.2013 02:00 7,9 C 6,1 C 89 % 995,7 hPa 0,0 l/m 0 min 2 min 0,0 UV-I 0 W/m 18,0 km/h (3 Bft)
04.11.2013 02:02 7,9 C 6,1 C 89 % 995,6 hPa 0,0 l/m 0 min 2 min 0,0 UV-I 0 W/m 15,4 km/h (3 Bft)
04.11.2013 02:04 7,8 C 6,1 C 90 % 995,5 hPa 0,0 l/m 0 min 2 min 0,0 UV-I 0 W/m 7,7 km/h (2 Bft)
04.11.2013 02:06 7,8 C 6,1 C 90 % 995,4 hPa 0,0 l/m 0 min 2 min 0,0 UV-I 0 W/m 10,3 km/h (2 Bft)
04.11.2013 02:08 7,8 C 5,6 C 90 % 995,3 hPa 0,0 l/m 0 min 2 min 0,0 UV-I 0 W/m 12,9 km/h (3 Bft)
04.11.2013 02:10 7,7 C 5,6 C 90 % 995,2 hPa 0,0 l/m 0 min 2 min 0,0 UV-I 0 W/m 18,0 km/h (3 Bft)
04.11.2013 02:12 7,7 C 5,6 C 91 % 995,1 hPa 0,0 l/m 0 min 2 min 0,0 UV-I 0 W/m 23,2 km/h (4 Bft)
04.11.2013 02:14 7,7 C 5,6 C 91 % 995,0 hPa 0,0 l/m 0 min 2 min 0,0 UV-I 0 W/m 20,6 km/h (4 Bft)
04.11.2013 02:16 7,7 C 5,6 C 91 % 994,8 hPa 0,2 l/m 0 min 2 min 0,0 UV-I 0 W/m 12,9 km/h (3 Bft)
04.11.2013 02:18 7,7 C 5,6 C 91 % 994,8 hPa 0,0 l/m 0 min 2 min 0,0 UV-I 0 W/m 20,6 km/h (4 Bft)
04.11.2013 02:20 7,7 C 5,6 C 91 % 994,6 hPa 0,0 l/m 0 min 2 min 0,0 UV-I 0 W/m 18,0 km/h (3 Bft)
04.11.2013 02:22 7,7 C 6,1 C 91 % 994,5 hPa 0,0 l/m 0 min 2 min 0,0 UV-I 0 W/m 15,4 km/h (3 Bft)
04.11.2013 02:24 7,7 C 6,1 C 92 % 994,5 hPa 0,0 l/m 0 min 2 min 0,0 UV-I 0 W/m 12,9 km/h (3 Bft)
04.11.2013 02:26 7,7 C 6,1 C 92 % 994,4 hPa 0,0 l/m 0 min 2 min 0,0 UV-I 0 W/m 10,3 km/h (2 Bft)
04.11.2013 02:28 7,7 C 6,1 C 92 % 994,1 hPa 0,2 l/m 0 min 2 min 0,0 UV-I 0 W/m 20,6 km/h (4 Bft)
04.11.2013 02:30 7,6 C 6,1 C 92 % 994,0 hPa 0,0 l/m 0 min 2 min 0,0 UV-I 0 W/m 20,6 km/h (4 Bft)
04.11.2013 02:32 7,6 C 6,1 C 92 % 993,9 hPa 0,0 l/m 0 min 2 min 0,0 UV-I 0 W/m 25,7 km/h (4 Bft)
04.11.2013 02:34 7,6 C 6,1 C 92 % 993,8 hPa 0,0 l/m 0 min 2 min 0,0 UV-I 0 W/m 20,6 km/h (4 Bft)
04.11.2013 02:36 7,6 C 6,1 C 92 % 993,8 hPa 0,0 l/m 0 min 2 min 0,0 UV-I 0 W/m 18,0 km/h (3 Bft)
04.11.2013 02:38 7,6 C 6,1 C 92 % 993,6 hPa 0,0 l/m 0 min 2 min 0,0 UV-I 0 W/m 18,0 km/h (3 Bft)
04.11.2013 02:40 7,6 C 5,6 C 93 % 993,6 hPa 0,0 l/m 0 min 2 min 0,0 UV-I 0 W/m 18,0 km/h (3 Bft)
04.11.2013 02:42 7,6 C 6,1 C 93 % 993,5 hPa 0,2 l/m 0 min 2 min 0,0 UV-I 0 W/m 23,2 km/h (4 Bft)
04.11.2013 02:44 7,6 C 6,1 C 93 % 993,3 hPa 0,0 l/m 0 min 2 min 0,0 UV-I 0 W/m 18,0 km/h (3 Bft)
04.11.2013 02:46 7,6 C 6,1 C 93 % 993,2 hPa 0,0 l/m 0 min 2 min 0,0 UV-I 0 W/m 20,6 km/h (4 Bft)
04.11.2013 02:48 7,6 C 6,1 C 93 % 993,1 hPa 0,0 l/m 0 min 2 min 0,0 UV-I 0 W/m 18,0 km/h (3 Bft)
04.11.2013 02:50 7,6 C 6,1 C 93 % 993,1 hPa 0,0 l/m 0 min 2 min 0,0 UV-I 0 W/m 18,0 km/h (3 Bft)
04.11.2013 02:52 7,6 C 6,1 C 93 % 993,1 hPa 0,2 l/m 0 min 2 min 0,0 UV-I 0 W/m 15,4 km/h (3 Bft)
04.11.2013 02:54 7,5 C 6,1 C 93 % 993,0 hPa 0,0 l/m 0 min 2 min 0,0 UV-I 0 W/m 12,9 km/h (3 Bft)
04.11.2013 02:56 7,5 C 6,1 C 93 % 992,8 hPa 0,0 l/m 0 min 2 min 0,0 UV-I 0 W/m 23,2 km/h (4 Bft)
04.11.2013 02:58 7,5 C 6,1 C 94 % 992,8 hPa 0,0 l/m 0 min 2 min 0,0 UV-I 0 W/m 10,3 km/h (2 Bft)
04.11.2013 03:00 7,5 C 6,1 C 93 % 992,7 hPa 0,0 l/m 0 min 2 min 0,0 UV-I 0 W/m 23,2 km/h (4 Bft)
04.11.2013 03:02 7,5 C 6,1 C 94 % 992,6 hPa 0,2 l/m 0 min 2 min 0,0 UV-I 0 W/m 23,2 km/h (4 Bft)
04.11.2013 03:04 7,5 C 6,1 C 94 % 992,4 hPa 0,0 l/m 0 min 2 min 0,0 UV-I 0 W/m 28,3 km/h (4 Bft)
04.11.2013 03:06 7,5 C 6,1 C 94 % 992,3 hPa 0,0 l/m 0 min 2 min 0,0 UV-I 0 W/m 15,4 km/h (3 Bft)
04.11.2013 03:08 7,5 C 6,1 C 94 % 992,2 hPa 0,0 l/m 0 min 2 min 0,0 UV-I 0 W/m 23,2 km/h (4 Bft)
04.11.2013 03:10 7,5 C 6,1 C 94 % 992,2 hPa 0,2 l/m 0 min 2 min 0,0 UV-I 0 W/m 20,6 km/h (4 Bft)
04.11.2013 03:12 7,5 C 6,1 C 94 % 992,0 hPa 0,0 l/m 0 min 2 min 0,0 UV-I 0 W/m 30,9 km/h (5 Bft)
04.11.2013 03:14 7,5 C 6,1 C 94 % 991,8 hPa 0,0 l/m 0 min 2 min 0,0 UV-I 0 W/m 23,2 km/h (4 Bft)
04.11.2013 03:16 7,5 C 6,1 C 94 % 991,7 hPa 0,2 l/m 0 min 2 min 0,0 UV-I 0 W/m 25,7 km/h (4 Bft)
04.11.2013 03:18 7,5 C 6,1 C 94 % 991,6 hPa 0,0 l/m 0 min 2 min 0,0 UV-I 0 W/m 23,2 km/h (4 Bft)
04.11.2013 03:20 7,5 C 6,1 C 94 % 991,5 hPa 0,0 l/m 0 min 2 min 0,0 UV-I 0 W/m 25,7 km/h (4 Bft)
04.11.2013 03:22 7,5 C 6,1 C 94 % 991,4 hPa 0,0 l/m 0 min 2 min 0,0 UV-I 0 W/m 23,2 km/h (4 Bft)
04.11.2013 03:24 7,6 C 6,1 C 94 % 991,2 hPa 0,2 l/m 0 min 2 min 0,0 UV-I 0 W/m 20,6 km/h (4 Bft)
04.11.2013 03:26 7,6 C 6,1 C 94 % 991,2 hPa 0,0 l/m 0 min 2 min 0,0 UV-I 0 W/m 18,0 km/h (3 Bft)
04.11.2013 03:28 7,6 C 6,1 C 94 % 991,0 hPa 0,0 l/m 0 min 2 min 0,0 UV-I 0 W/m 23,2 km/h (4 Bft)
04.11.2013 03:30 7,6 C 6,1 C 95 % 990,9 hPa 0,2 l/m 0 min 2 min 0,0 UV-I 0 W/m 25,7 km/h (4 Bft)
04.11.2013 03:32 7,6 C 6,1 C 95 % 990,9 hPa 0,0 l/m 0 min 2 min 0,0 UV-I 0 W/m 18,0 km/h (3 Bft)
04.11.2013 03:34 7,6 C 6,1 C 95 % 990,7 hPa 0,0 l/m 0 min 2 min 0,0 UV-I 0 W/m 23,2 km/h (4 Bft)
04.11.2013 03:36 7,6 C 6,1 C 95 % 990,6 hPa 0,2 l/m 0 min 2 min 0,0 UV-I 0 W/m 18,0 km/h (3 Bft)
04.11.2013 03:38 7,6 C 6,1 C 95 % 990,5 hPa 0,0 l/m 0 min 2 min 0,0 UV-I 0 W/m 18,0 km/h (3 Bft)
04.11.2013 03:40 7,6 C 6,1 C 95 % 990,5 hPa 0,0 l/m 0 min 2 min 0,0 UV-I 0 W/m 28,3 km/h (4 Bft)
04.11.2013 03:42 7,6 C 6,1 C 95 % 990,3 hPa 0,0 l/m 0 min 2 min 0,0 UV-I 0 W/m 18,0 km/h (3 Bft)
04.11.2013 03:44 7,6 C 6,1 C 95 % 990,2 hPa 0,2 l/m 0 min 2 min 0,0 UV-I 0 W/m 18,0 km/h (3 Bft)
04.11.2013 03:46 7,6 C 6,1 C 95 % 990,1 hPa 0,0 l/m 0 min 2 min 0,0 UV-I 0 W/m 25,7 km/h (4 Bft)
04.11.2013 03:48 7,6 C 6,1 C 95 % 990,0 hPa 0,0 l/m 0 min 2 min 0,0 UV-I 0 W/m 18,0 km/h (3 Bft)
04.11.2013 03:50 7,6 C 6,1 C 95 % 989,9 hPa 0,0 l/m 0 min 2 min 0,0 UV-I 0 W/m 28,3 km/h (4 Bft)
04.11.2013 03:52 7,6 C 6,1 C 95 % 989,7 hPa 0,2 l/m 0 min 2 min 0,0 UV-I 0 W/m 18,0 km/h (3 Bft)
04.11.2013 03:54 7,7 C 6,1 C 95 % 989,6 hPa 0,0 l/m 0 min 2 min 0,0 UV-I 0 W/m 23,2 km/h (4 Bft)
04.11.2013 03:56 7,7 C 6,1 C 95 % 989,6 hPa 0,2 l/m 0 min 2 min 0,0 UV-I 0 W/m 28,3 km/h (4 Bft)
04.11.2013 03:58 7,7 C 6,1 C 95 % 989,6 hPa 0,0 l/m 0 min 2 min 0,0 UV-I 0 W/m 25,7 km/h (4 Bft)
04.11.2013 04:00 7,7 C 6,1 C 95 % 989,5 hPa 0,2 l/m 0 min 2 min 0,0 UV-I 0 W/m 20,6 km/h (4 Bft)
04.11.2013 04:05 7,7 C 6,1 C 95 % 989,2 hPa 0,2 l/m 0 min 2 min 0,0 UV-I 0 W/m 23,2 km/h (4 Bft)
04.11.2013 04:10 7,7 C 6,1 C 96 % 989,1 hPa 0,2 l/m 0 min 2 min 0,0 UV-I 0 W/m 23,2 km/h (4 Bft)
04.11.2013 04:15 7,7 C 6,1 C 96 % 988,8 hPa 0,0 l/m 0 min 2 min 0,0 UV-I 0 W/m 23,2 km/h (4 Bft)
04.11.2013 04:20 7,8 C 6,7 C 96 % 988,6 hPa 0,2 l/m 0 min 2 min 0,0 UV-I 0 W/m 30,9 km/h (5 Bft)
04.11.2013 04:26 7,8 C 6,7 C 96 % 988,6 hPa 0,0 l/m 0 min 2 min 0,0 UV-I 0 W/m 15,4 km/h (3 Bft)
04.11.2013 04:28 7,8 C 6,7 C 96 % 988,4 hPa 0,0 l/m 0 min 2 min 0,0 UV-I 0 W/m 28,3 km/h (4 Bft)
04.11.2013 04:30 7,8 C 6,7 C 96 % 988,4 hPa 0,0 l/m 0 min 2 min 0,0 UV-I 0 W/m 23,2 km/h (4 Bft)
04.11.2013 04:32 7,9 C 6,7 C 96 % 988,2 hPa 0,0 l/m 0 min 0 min 0,0 UV-I 0 W/m 30,9 km/h (5 Bft)
04.11.2013 04:34 7,9 C 6,7 C 96 % 988,2 hPa 0,0 l/m 0 min 0 min 0,0 UV-I 0 W/m 25,7 km/h (4 Bft)
04.11.2013 04:36 7,9 C 6,7 C 96 % 988,1 hPa 0,0 l/m 0 min 0 min 0,0 UV-I 0 W/m 23,2 km/h (4 Bft)
04.11.2013 04:38 7,9 C 6,7 C 96 % 988,0 hPa 0,0 l/m 0 min 0 min 0,0 UV-I 0 W/m 28,3 km/h (4 Bft)
04.11.2013 04:40 7,9 C 6,7 C 96 % 988,1 hPa 0,0 l/m 0 min 0 min 0,0 UV-I 0 W/m 28,3 km/h (4 Bft)
04.11.2013 04:42 7,9 C 6,7 C 96 % 988,0 hPa 0,0 l/m 0 min 0 min 0,0 UV-I 0 W/m 25,7 km/h (4 Bft)
04.11.2013 04:44 8,0 C 6,7 C 96 % 987,9 hPa 0,0 l/m 0 min 0 min 0,0 UV-I 0 W/m 15,4 km/h (3 Bft)
04.11.2013 04:46 7,9 C 6,7 C 96 % 987,7 hPa 0,0 l/m 0 min 0 min 0,0 UV-I 0 W/m 20,6 km/h (4 Bft)
04.11.2013 04:48 8,0 C 6,7 C 96 % 987,8 hPa 0,0 l/m 0 min 0 min 0,0 UV-I 0 W/m 20,6 km/h (4 Bft)
04.11.2013 04:50 8,0 C 6,7 C 96 % 987,7 hPa 0,0 l/m 0 min 0 min 0,0 UV-I 0 W/m 25,7 km/h (4 Bft)
04.11.2013 04:52 8,0 C 6,7 C 96 % 987,8 hPa 0,0 l/m 0 min 0 min 0,0 UV-I 0 W/m 25,7 km/h (4 Bft)
04.11.2013 04:54 8,1 C 6,7 C 96 % 987,7 hPa 0,0 l/m 0 min 0 min 0,0 UV-I 0 W/m 23,2 km/h (4 Bft)
04.11.2013 04:56 8,1 C 6,7 C 96 % 987,6 hPa 0,0 l/m 0 min 0 min 0,0 UV-I 0 W/m 10,3 km/h (2 Bft)
04.11.2013 04:58 8,1 C 6,7 C 96 % 987,6 hPa 0,0 l/m 0 min 0 min 0,0 UV-I 0 W/m 15,4 km/h (3 Bft)
04.11.2013 05:00 8,1 C 6,7 C 96 % 987,5 hPa 0,0 l/m 0 min 0 min 0,0 UV-I 0 W/m 20,6 km/h (4 Bft)
04.11.2013 05:02 8,1 C 6,7 C 96 % 987,5 hPa 0,0 l/m 0 min 0 min 0,0 UV-I 0 W/m 18,0 km/h (3 Bft)
04.11.2013 05:04 8,2 C 6,7 C 96 % 987,4 hPa 0,0 l/m 0 min 0 min 0,0 UV-I 0 W/m 10,3 km/h (2 Bft)
04.11.2013 05:06 8,2 C 6,7 C 96 % 987,4 hPa 0,0 l/m 0 min 0 min 0,0 UV-I 0 W/m 20,6 km/h (4 Bft)
04.11.2013 05:08 8,2 C 6,7 C 96 % 987,3 hPa 0,0 l/m 0 min 0 min 0,0 UV-I 0 W/m 23,2 km/h (4 Bft)
04.11.2013 05:10 8,3 C 6,7 C 96 % 987,3 hPa 0,0 l/m 0 min 0 min 0,0 UV-I 0 W/m 20,6 km/h (4 Bft)
04.11.2013 05:12 8,3 C 6,7 C 96 % 987,3 hPa 0,0 l/m 0 min 0 min 0,0 UV-I 0 W/m 25,7 km/h (4 Bft)
04.11.2013 05:14 8,4 C 6,7 C 96 % 987,3 hPa 0,0 l/m 0 min 0 min 0,0 UV-I 0 W/m 23,2 km/h (4 Bft)
04.11.2013 05:16 8,4 C 6,7 C 96 % 987,2 hPa 0,0 l/m 0 min 0 min 0,0 UV-I 0 W/m 18,0 km/h (3 Bft)
04.11.2013 05:18 8,4 C 7,2 C 96 % 987,2 hPa 0,0 l/m 0 min 0 min 0,0 UV-I 0 W/m 15,4 km/h (3 Bft)
04.11.2013 05:20 8,6 C 7,2 C 96 % 987,1 hPa 0,0 l/m 0 min 0 min 0,0 UV-I 0 W/m 10,3 km/h (2 Bft)
04.11.2013 05:22 8,6 C 7,2 C 96 % 987,1 hPa 0,0 l/m 0 min 0 min 0,0 UV-I 0 W/m 10,3 km/h (2 Bft)
04.11.2013 05:24 8,7 C 7,2 C 96 % 987,0 hPa 0,0 l/m 0 min 0 min 0,0 UV-I 0 W/m 18,0 km/h (3 Bft)
04.11.2013 05:26 8,7 C 7,2 C 96 % 987,0 hPa 0,0 l/m 0 min 0 min 0,0 UV-I 0 W/m 28,3 km/h (4 Bft)
04.11.2013 05:28 8,8 C 7,2 C 96 % 987,0 hPa 0,0 l/m 0 min 0 min 0,0 UV-I 0 W/m 25,7 km/h (4 Bft)
04.11.2013 05:30 8,9 C 7,2 C 96 % 986,9 hPa 0,0 l/m 0 min 0 min 0,0 UV-I 0 W/m 15,4 km/h (3 Bft)
04.11.2013 05:32 8,9 C 7,2 C 95 % 986,9 hPa 0,0 l/m 0 min 0 min 0,0 UV-I 0 W/m 15,4 km/h (3 Bft)
04.11.2013 05:34 9,1 C 7,2 C 96 % 986,9 hPa 0,0 l/m 0 min 0 min 0,0 UV-I 0 W/m 10,3 km/h (2 Bft)
04.11.2013 05:36 9,1 C 7,2 C 95 % 986,8 hPa 0,0 l/m 0 min 0 min 0,0 UV-I 0 W/m 23,2 km/h (4 Bft)
04.11.2013 05:38 9,2 C 7,2 C 95 % 986,8 hPa 0,0 l/m 0 min 2 min 0,0 UV-I 0 W/m 15,4 km/h (3 Bft)
04.11.2013 05:40 9,3 C 7,8 C 95 % 986,8 hPa 0,0 l/m 0 min 2 min 0,0 UV-I 0 W/m 23,2 km/h (4 Bft)
04.11.2013 05:42 9,3 C 7,8 C 95 % 986,8 hPa 0,0 l/m 0 min 2 min 0,0 UV-I 0 W/m 12,9 km/h (3 Bft)
04.11.2013 05:44 9,4 C 7,8 C 95 % 986,8 hPa 0,0 l/m 0 min 0 min 0,0 UV-I 0 W/m 12,9 km/h (3 Bft)
04.11.2013 05:46 9,5 C 7,8 C 95 % 986,7 hPa 0,0 l/m 0 min 0 min 0,0 UV-I 0 W/m 18,0 km/h (3 Bft)
04.11.2013 05:48 9,6 C 7,8 C 95 % 986,6 hPa 0,0 l/m 0 min 0 min 0,0 UV-I 0 W/m 20,6 km/h (4 Bft)
04.11.2013 05:50 9,6 C 7,8 C 95 % 986,7 hPa 0,0 l/m 0 min 0 min 0,0 UV-I 0 W/m 18,0 km/h (3 Bft)
04.11.2013 05:52 9,7 C 7,8 C 95 % 986,5 hPa 0,0 l/m 0 min 0 min 0,0 UV-I 0 W/m 23,2 km/h (4 Bft)
04.11.2013 05:54 9,7 C 7,8 C 95 % 986,6 hPa 0,0 l/m 0 min 0 min 0,0 UV-I 0 W/m 12,9 km/h (3 Bft)
04.11.2013 05:56 9,8 C 7,8 C 94 % 986,7 hPa 0,0 l/m 0 min 0 min 0,0 UV-I 0 W/m 18,0 km/h (3 Bft)
04.11.2013 05:58 9,8 C 7,8 C 94 % 986,5 hPa 0,0 l/m 0 min 0 min 0,0 UV-I 0 W/m 20,6 km/h (4 Bft)
04.11.2013 06:00 9,9 C 7,8 C 94 % 986,5 hPa 0,0 l/m 0 min 0 min 0,0 UV-I 0 W/m 10,3 km/h (2 Bft)
04.11.2013 06:02 9,9 C 7,8 C 94 % 986,3 hPa 0,0 l/m 0 min 0 min 0,0 UV-I 0 W/m 15,4 km/h (3 Bft)
04.11.2013 06:06 10,0 C 7,8 C 94 % 986,3 hPa 0,0 l/m 0 min 0 min 0,0 UV-I 0 W/m 20,6 km/h (4 Bft)
04.11.2013 06:08 10,1 C 7,8 C 94 % 986,3 hPa 0,0 l/m 0 min 0 min 0,0 UV-I 0 W/m 12,9 km/h (3 Bft)
04.11.2013 06:10 10,1 C 8,3 C 93 % 986,2 hPa 0,0 l/m 0 min 0 min 0,0 UV-I 0 W/m 20,6 km/h (4 Bft)
04.11.2013 06:12 10,1 C 8,3 C 93 % 986,1 hPa 0,0 l/m 0 min 0 min 0,0 UV-I 0 W/m 18,0 km/h (3 Bft)
04.11.2013 06:14 10,2 C 8,3 C 93 % 986,0 hPa 0,0 l/m 0 min 0 min 0,0 UV-I 0 W/m 15,4 km/h (3 Bft)
04.11.2013 06:16 10,3 C 8,3 C 93 % 986,1 hPa 0,0 l/m 0 min 0 min 0,0 UV-I 0 W/m 12,9 km/h (3 Bft)
04.11.2013 06:18 10,3 C 8,3 C 93 % 986,0 hPa 0,0 l/m 0 min 0 min 0,0 UV-I 0 W/m 15,4 km/h (3 Bft)
04.11.2013 06:20 10,4 C 8,3 C 93 % 986,0 hPa 0,0 l/m 0 min 0 min 0,0 UV-I 0 W/m 15,4 km/h (3 Bft)
04.11.2013 06:22 10,4 C 8,3 C 93 % 986,0 hPa 0,0 l/m 0 min 0 min 0,0 UV-I 0 W/m 12,9 km/h (3 Bft)
04.11.2013 06:24 10,5 C 8,3 C 92 % 985,9 hPa 0,0 l/m 0 min 0 min 0,0 UV-I 0 W/m 15,4 km/h (3 Bft)
04.11.2013 06:26 10,5 C 8,3 C 92 % 985,9 hPa 0,0 l/m 0 min 2 min 0,0 UV-I 0 W/m 25,7 km/h (4 Bft)
04.11.2013 06:28 10,5 C 8,3 C 92 % 985,8 hPa 0,0 l/m 0 min 2 min 0,0 UV-I 0 W/m 12,9 km/h (3 Bft)
04.11.2013 06:30 10,6 C 8,3 C 92 % 985,8 hPa 0,0 l/m 0 min 2 min 0,0 UV-I 0 W/m 10,3 km/h (2 Bft)
04.11.2013 06:32 10,5 C 8,3 C 92 % 985,9 hPa 0,0 l/m 0 min 2 min 0,0 UV-I 0 W/m 18,0 km/h (3 Bft)
04.11.2013 06:34 10,5 C 8,3 C 92 % 985,8 hPa 0,0 l/m 0 min 2 min 0,0 UV-I 0 W/m 12,9 km/h (3 Bft)
04.11.2013 06:36 10,5 C 8,3 C 92 % 985,8 hPa 0,2 l/m 0 min 2 min 0,0 UV-I 0 W/m 23,2 km/h (4 Bft)
04.11.2013 06:38 10,4 C 8,3 C 92 % 985,7 hPa 0,0 l/m 0 min 0 min 0,0 UV-I 0 W/m 12,9 km/h (3 Bft)
04.11.2013 06:40 10,4 C 8,3 C 92 % 985,6 hPa 0,0 l/m 0 min 0 min 0,0 UV-I 0 W/m 23,2 km/h (4 Bft)
04.11.2013 06:42 10,4 C 8,3 C 93 % 985,5 hPa 0,0 l/m 0 min 0 min 0,0 UV-I 0 W/m 18,0 km/h (3 Bft)
04.11.2013 06:44 10,4 C 8,3 C 93 % 985,6 hPa 0,0 l/m 0 min 0 min 0,0 UV-I 0 W/m 23,2 km/h (4 Bft)
04.11.2013 06:46 10,4 C 8,3 C 93 % 985,7 hPa 0,0 l/m 0 min 0 min 0,0 UV-I 0 W/m 12,9 km/h (3 Bft)
04.11.2013 06:48 10,4 C 8,3 C 93 % 985,5 hPa 0,0 l/m 0 min 0 min 0,0 UV-I 0 W/m 15,4 km/h (3 Bft)
04.11.2013 06:50 10,4 C 8,3 C 93 % 985,5 hPa 0,0 l/m 0 min 0 min 0,0 UV-I 0 W/m 18,0 km/h (3 Bft)
04.11.2013 06:52 10,4 C 8,3 C 93 % 985,5 hPa 0,0 l/m 0 min 0 min 0,0 UV-I 0 W/m 10,3 km/h (2 Bft)
04.11.2013 06:54 10,4 C 8,3 C 93 % 985,4 hPa 0,0 l/m 0 min 0 min 0,0 UV-I 0 W/m 23,2 km/h (4 Bft)
04.11.2013 06:56 10,4 C 8,3 C 93 % 985,5 hPa 0,0 l/m 0 min 0 min 0,0 UV-I 0 W/m 23,2 km/h (4 Bft)
04.11.2013 06:58 10,4 C 8,3 C 94 % 985,4 hPa 0,0 l/m 0 min 0 min 0,0 UV-I 0 W/m 28,3 km/h (4 Bft)
04.11.2013 07:00 10,5 C 8,3 C 93 % 985,4 hPa 0,0 l/m 0 min 0 min 0,0 UV-I 0 W/m 25,7 km/h (4 Bft)
04.11.2013 07:02 10,6 C 8,3 C 93 % 985,3 hPa 0,0 l/m 0 min 0 min 0,0 UV-I 0 W/m 15,4 km/h (3 Bft)
04.11.2013 07:04 10,6 C 8,9 C 93 % 985,4 hPa 0,0 l/m 0 min 0 min 0,0 UV-I 0 W/m 18,0 km/h (3 Bft)
04.11.2013 07:06 10,7 C 8,3 C 93 % 985,3 hPa 0,0 l/m 0 min 0 min 0,0 UV-I 0 W/m 15,4 km/h (3 Bft)
04.11.2013 07:08 10,7 C 8,9 C 93 % 985,3 hPa 0,0 l/m 0 min 0 min 0,0 UV-I 0 W/m 12,9 km/h (3 Bft)
04.11.2013 07:10 10,7 C 8,9 C 93 % 985,2 hPa 0,0 l/m 0 min 0 min 0,0 UV-I 0 W/m 20,6 km/h (4 Bft)
04.11.2013 07:12 10,7 C 8,9 C 93 % 985,1 hPa 0,0 l/m 0 min 0 min 0,0 UV-I 0 W/m 18,0 km/h (3 Bft)
04.11.2013 07:14 10,8 C 8,9 C 93 % 985,1 hPa 0,0 l/m 0 min 0 min 0,0 UV-I 0 W/m 20,6 km/h (4 Bft)
04.11.2013 07:16 10,8 C 8,9 C 93 % 985,1 hPa 0,0 l/m 0 min 0 min 0,0 UV-I 0 W/m 18,0 km/h (3 Bft)
04.11.2013 07:18 10,8 C 8,9 C 93 % 985,3 hPa 0,0 l/m 0 min 0 min 0,0 UV-I 0 W/m 25,7 km/h (4 Bft)
04.11.2013 07:20 10,9 C 8,9 C 93 % 985,1 hPa 0,0 l/m 0 min 0 min 0,0 UV-I 0 W/m 20,6 km/h (4 Bft)
04.11.2013 07:22 11,0 C 8,9 C 92 % 985,1 hPa 0,0 l/m 0 min 0 min 0,0 UV-I 0 W/m 23,2 km/h (4 Bft)
04.11.2013 07:24 11,1 C 8,9 C 92 % 985,0 hPa 0,0 l/m 0 min 0 min 0,0 UV-I 0 W/m 18,0 km/h (3 Bft)
04.11.2013 07:26 11,1 C 8,9 C 92 % 985,1 hPa 0,0 l/m 0 min 0 min 0,0 UV-I 0 W/m 18,0 km/h (3 Bft)
04.11.2013 07:28 11,2 C 8,9 C 92 % 985,0 hPa 0,0 l/m 0 min 0 min 0,0 UV-I 0 W/m 20,6 km/h (4 Bft)
04.11.2013 07:30 11,3 C 8,9 C 92 % 985,1 hPa 0,0 l/m 0 min 0 min 0,0 UV-I 0 W/m 12,9 km/h (3 Bft)
04.11.2013 07:32 11,3 C 8,9 C 92 % 985,0 hPa 0,0 l/m 0 min 0 min 0,0 UV-I 0 W/m 25,7 km/h (4 Bft)
04.11.2013 07:34 11,4 C 8,9 C 91 % 985,0 hPa 0,0 l/m 0 min 0 min 0,0 UV-I 0 W/m 12,9 km/h (3 Bft)
04.11.2013 07:36 11,4 C 9,4 C 91 % 985,0 hPa 0,0 l/m 0 min 0 min 0,0 UV-I 0 W/m 20,6 km/h (4 Bft)
04.11.2013 07:38 11,4 C 9,4 C 91 % 985,0 hPa 0,0 l/m 0 min 0 min 0,0 UV-I 0 W/m 23,2 km/h (4 Bft)
04.11.2013 07:40 11,5 C 9,4 C 91 % 984,9 hPa 0,0 l/m 0 min 0 min 0,0 UV-I 0 W/m 18,0 km/h (3 Bft)
04.11.2013 07:42 11,6 C 9,4 C 91 % 985,0 hPa 0,0 l/m 0 min 0 min 0,0 UV-I 0 W/m 23,2 km/h (4 Bft)
04.11.2013 07:44 11,6 C 9,4 C 91 % 985,0 hPa 0,0 l/m 0 min 0 min 0,0 UV-I 0 W/m 38,6 km/h (5 Bft)
04.11.2013 07:46 11,7 C 9,4 C 90 % 985,1 hPa 0,0 l/m 0 min 0 min 0,0 UV-I 0 W/m 25,7 km/h (4 Bft)
04.11.2013 07:48 11,7 C 9,4 C 90 % 985,2 hPa 0,0 l/m 0 min 2 min 0,0 UV-I 0 W/m 25,7 km/h (4 Bft)
04.11.2013 07:50 11,7 C 9,4 C 90 % 985,1 hPa 0,0 l/m 0 min 2 min 0,0 UV-I 5 W/m 36,0 km/h (5 Bft)
04.11.2013 07:52 11,7 C 9,4 C 90 % 985,0 hPa 0,0 l/m 0 min 2 min 0,0 UV-I 5 W/m 25,7 km/h (4 Bft)
04.11.2013 07:54 11,7 C 9,4 C 90 % 985,0 hPa 0,0 l/m 0 min 2 min 0,0 UV-I 7 W/m 23,2 km/h (4 Bft)
04.11.2013 07:56 11,7 C 9,4 C 91 % 985,0 hPa 0,0 l/m 0 min 0 min 0,0 UV-I 5 W/m 20,6 km/h (4 Bft)
04.11.2013 07:58 11,7 C 9,4 C 91 % 984,8 hPa 0,0 l/m 0 min 0 min 0,0 UV-I 5 W/m 10,3 km/h (2 Bft)
04.11.2013 08:00 11,6 C 9,4 C 91 % 984,8 hPa 0,0 l/m 0 min 0 min 0,0 UV-I 5 W/m 15,4 km/h (3 Bft)
04.11.2013 08:02 11,6 C 9,4 C 91 % 984,8 hPa 0,0 l/m 0 min 0 min 0,0 UV-I 7 W/m 15,4 km/h (3 Bft)
04.11.2013 08:04 11,5 C 9,4 C 91 % 984,8 hPa 0,0 l/m 0 min 0 min 0,0 UV-I 5 W/m 10,3 km/h (2 Bft)
04.11.2013 08:06 11,5 C 9,4 C 91 % 984,8 hPa 0,0 l/m 0 min 0 min 0,0 UV-I 5 W/m 12,9 km/h (3 Bft)
04.11.2013 08:08 11,5 C 9,4 C 92 % 984,9 hPa 0,0 l/m 0 min 0 min 0,0 UV-I 7 W/m 25,7 km/h (4 Bft)
04.11.2013 08:10 11,6 C 9,4 C 92 % 984,9 hPa 0,0 l/m 0 min 0 min 0,0 UV-I 7 W/m 20,6 km/h (4 Bft)
04.11.2013 08:12 11,6 C 9,4 C 92 % 984,8 hPa 0,0 l/m 0 min 2 min 0,0 UV-I 7 W/m 25,7 km/h (4 Bft)
04.11.2013 08:14 11,6 C 9,4 C 91 % 984,8 hPa 0,0 l/m 0 min 0 min 0,0 UV-I 9 W/m 18,0 km/h (3 Bft)
04.11.2013 08:16 11,7 C 9,4 C 91 % 984,8 hPa 0,2 l/m 0 min 2 min 0,0 UV-I 11 W/m 25,7 km/h (4 Bft)
04.11.2013 08:18 11,7 C 9,4 C 91 % 984,9 hPa 0,0 l/m 0 min 0 min 0,0 UV-I 14 W/m 41,2 km/h (6 Bft)
04.11.2013 08:20 11,8 C 9,4 C 91 % 985,1 hPa 0,0 l/m 0 min 0 min 0,0 UV-I 16 W/m 38,6 km/h (5 Bft)
04.11.2013 08:22 11,9 C 9,4 C 91 % 984,9 hPa 0,0 l/m 0 min 0 min 0,0 UV-I 23 W/m 23,2 km/h (4 Bft)
04.11.2013 08:24 12,0 C 9,4 C 90 % 984,8 hPa 0,0 l/m 0 min 0 min 0,0 UV-I 25 W/m 20,6 km/h (4 Bft)
04.11.2013 08:26 12,0 C 9,4 C 90 % 984,8 hPa 0,0 l/m 0 min 0 min 0,0 UV-I 25 W/m 23,2 km/h (4 Bft)
04.11.2013 08:28 12,1 C 9,4 C 90 % 984,9 hPa 0,0 l/m 0 min 0 min 0,0 UV-I 32 W/m 28,3 km/h (4 Bft)
04.11.2013 08:30 12,1 C 10,0 C 90 % 984,8 hPa 0,0 l/m 0 min 0 min 0,0 UV-I 23 W/m 23,2 km/h (4 Bft)
04.11.2013 08:32 12,2 C 10,0 C 90 % 984,8 hPa 0,0 l/m 0 min 0 min 0,0 UV-I 19 W/m 25,7 km/h (4 Bft)
04.11.2013 08:34 12,2 C 9,4 C 89 % 984,8 hPa 0,0 l/m 0 min 2 min 0,0 UV-I 28 W/m 33,5 km/h (5 Bft)
04.11.2013 08:36 12,2 C 9,4 C 89 % 984,8 hPa 0,0 l/m 0 min 2 min 0,0 UV-I 26 W/m 28,3 km/h (4 Bft)
04.11.2013 08:38 12,2 C 9,4 C 90 % 984,8 hPa 0,0 l/m 0 min 2 min 0,0 UV-I 35 W/m 28,3 km/h (4 Bft)
04.11.2013 08:40 12,1 C 9,4 C 90 % 984,8 hPa 0,0 l/m 0 min 2 min 0,0 UV-I 30 W/m 28,3 km/h (4 Bft)
04.11.2013 08:42 12,1 C 9,4 C 90 % 984,8 hPa 0,0 l/m 0 min 2 min 0,0 UV-I 23 W/m 36,0 km/h (5 Bft)
04.11.2013 08:44 12,1 C 9,4 C 90 % 984,7 hPa 0,0 l/m 0 min 2 min 0,0 UV-I 23 W/m 38,6 km/h (5 Bft)
04.11.2013 08:46 12,1 C 9,4 C 90 % 984,8 hPa 0,0 l/m 0 min 2 min 0,0 UV-I 23 W/m 28,3 km/h (4 Bft)
04.11.2013 08:48 12,1 C 9,4 C 90 % 984,8 hPa 0,0 l/m 0 min 2 min 0,0 UV-I 26 W/m 15,4 km/h (3 Bft)
04.11.2013 08:50 12,1 C 9,4 C 90 % 984,7 hPa 0,0 l/m 0 min 2 min 0,0 UV-I 33 W/m 23,2 km/h (4 Bft)
04.11.2013 08:52 12,0 C 9,4 C 90 % 984,6 hPa 0,0 l/m 0 min 2 min 0,0 UV-I 40 W/m 18,0 km/h (3 Bft)
04.11.2013 08:54 12,0 C 9,4 C 91 % 984,6 hPa 0,0 l/m 0 min 2 min 0,0 UV-I 40 W/m 25,7 km/h (4 Bft)
04.11.2013 08:56 11,9 C 9,4 C 91 % 984,6 hPa 0,0 l/m 0 min 0 min 0,0 UV-I 35 W/m 12,9 km/h (3 Bft)
04.11.2013 08:58 11,9 C 9,4 C 91 % 984,7 hPa 0,0 l/m 0 min 2 min 0,0 UV-I 35 W/m 15,4 km/h (3 Bft)
04.11.2013 09:00 11,9 C 9,4 C 91 % 984,6 hPa 0,0 l/m 0 min 2 min 0,0 UV-I 35 W/m 18,0 km/h (3 Bft)
04.11.2013 09:02 11,9 C 10,0 C 91 % 984,7 hPa 0,0 l/m 0 min 0 min 0,0 UV-I 46 W/m 20,6 km/h (4 Bft)
04.11.2013 09:04 11,9 C 10,0 C 91 % 984,6 hPa 0,0 l/m 0 min 2 min 0,0 UV-I 49 W/m 18,0 km/h (3 Bft)
04.11.2013 09:06 11,9 C 10,0 C 91 % 984,6 hPa 0,0 l/m 0 min 2 min 0,0 UV-I 51 W/m 20,6 km/h (4 Bft)
04.11.2013 09:08 12,0 C 10,0 C 91 % 984,6 hPa 0,0 l/m 0 min 2 min 0,0 UV-I 56 W/m 15,4 km/h (3 Bft)
04.11.2013 09:10 12,1 C 10,0 C 91 % 984,7 hPa 0,0 l/m 0 min 0 min 0,0 UV-I 70 W/m 20,6 km/h (4 Bft)
04.11.2013 09:12 12,1 C 10,0 C 91 % 984,6 hPa 0,0 l/m 0 min 0 min 0,0 UV-I 77 W/m 20,6 km/h (4 Bft)
04.11.2013 09:14 12,2 C 10,0 C 91 % 984,6 hPa 0,0 l/m 0 min 0 min 0,0 UV-I 54 W/m 25,7 km/h (4 Bft)
04.11.2013 09:16 12,2 C 10,0 C 90 % 984,6 hPa 0,0 l/m 0 min 0 min 0,0 UV-I 54 W/m 20,6 km/h (4 Bft)
04.11.2013 09:18 12,3 C 10,0 C 90 % 984,6 hPa 0,0 l/m 0 min 0 min 0,0 UV-I 62 W/m 15,4 km/h (3 Bft)
04.11.2013 09:20 12,3 C 10,0 C 90 % 984,6 hPa 0,0 l/m 0 min 0 min 0,0 UV-I 84 W/m 15,4 km/h (3 Bft)
04.11.2013 09:22 12,4 C 10,6 C 90 % 984,6 hPa 0,0 l/m 0 min 0 min 0,0 UV-I 98 W/m 23,2 km/h (4 Bft)
04.11.2013 09:24 12,4 C 10,6 C 89 % 984,5 hPa 0,0 l/m 0 min 2 min 0,0 UV-I 95 W/m 20,6 km/h (4 Bft)
04.11.2013 09:26 12,5 C 10,6 C 89 % 984,9 hPa 0,2 l/m 0 min 2 min 0,0 UV-I 63 W/m 43,8 km/h (6 Bft)
04.11.2013 09:28 12,6 C 10,6 C 89 % 984,6 hPa 0,0 l/m 0 min 2 min 0,0 UV-I 46 W/m 12,9 km/h (3 Bft)
04.11.2013 09:30 12,7 C 10,6 C 88 % 984,6 hPa 0,0 l/m 0 min 0 min 0,0 UV-I 32 W/m 28,3 km/h (4 Bft)
04.11.2013 09:32 12,7 C 10,6 C 88 % 984,5 hPa 0,0 l/m 0 min 0 min 0,0 UV-I 30 W/m 23,2 km/h (4 Bft)
04.11.2013 09:34 12,7 C 10,6 C 88 % 984,4 hPa 0,0 l/m 0 min 0 min 0,0 UV-I 35 W/m 18,0 km/h (3 Bft)
04.11.2013 09:36 12,7 C 10,6 C 88 % 984,6 hPa 0,0 l/m 0 min 0 min 0,0 UV-I 39 W/m 18,0 km/h (3 Bft)
04.11.2013 09:38 12,7 C 10,6 C 88 % 984,7 hPa 0,0 l/m 0 min 0 min 0,0 UV-I 44 W/m 30,9 km/h (5 Bft)
04.11.2013 09:40 12,7 C 10,6 C 88 % 984,5 hPa 0,0 l/m 0 min 0 min 0,0 UV-I 46 W/m 20,6 km/h (4 Bft)
04.11.2013 09:42 12,7 C 10,6 C 87 % 984,6 hPa 0,0 l/m 0 min 0 min 0,0 UV-I 44 W/m 18,0 km/h (3 Bft)
04.11.2013 09:44 12,7 C 10,6 C 87 % 984,6 hPa 0,0 l/m 0 min 0 min 0,0 UV-I 40 W/m 23,2 km/h (4 Bft)
04.11.2013 09:46 12,7 C 10,6 C 87 % 984,5 hPa 0,0 l/m 0 min 0 min 0,0 UV-I 39 W/m 15,4 km/h (3 Bft)
04.11.2013 09:48 12,7 C 10,6 C 87 % 984,5 hPa 0,0 l/m 0 min 0 min 0,0 UV-I 39 W/m 36,0 km/h (5 Bft)
04.11.2013 09:50 12,7 C 10,6 C 87 % 984,5 hPa 0,0 l/m 0 min 0 min 0,0 UV-I 42 W/m 23,2 km/h (4 Bft)
04.11.2013 09:52 12,7 C 10,6 C 87 % 984,5 hPa 0,0 l/m 0 min 0 min 0,0 UV-I 40 W/m 20,6 km/h (4 Bft)
04.11.2013 09:54 12,7 C 10,6 C 87 % 984,4 hPa 0,0 l/m 0 min 0 min 0,0 UV-I 44 W/m 23,2 km/h (4 Bft)
04.11.2013 09:56 12,7 C 10,6 C 87 % 984,6 hPa 0,0 l/m 0 min 0 min 0,0 UV-I 47 W/m 23,2 km/h (4 Bft)
04.11.2013 09:58 12,8 C 10,6 C 87 % 984,7 hPa 0,0 l/m 0 min 0 min 0,0 UV-I 53 W/m 48,9 km/h (6 Bft)
04.11.2013 10:00 12,8 C 10,6 C 87 % 984,5 hPa 0,0 l/m 0 min 0 min 0,0 UV-I 79 W/m 23,2 km/h (4 Bft)
04.11.2013 10:02 12,8 C 10,6 C 87 % 984,4 hPa 0,0 l/m 0 min 0 min 0,0 UV-I 98 W/m 23,2 km/h (4 Bft)
04.11.2013 10:04 12,8 C 11,1 C 87 % 984,4 hPa 0,0 l/m 0 min 0 min 0,0 UV-I 116 W/m 23,2 km/h (4 Bft)
04.11.2013 10:06 12,9 C 11,1 C 87 % 984,5 hPa 0,0 l/m 0 min 0 min 0,0 UV-I 95 W/m 23,2 km/h (4 Bft)
04.11.2013 10:08 12,9 C 11,7 C 87 % 984,4 hPa 0,0 l/m 0 min 0 min 0,0 UV-I 107 W/m 18,0 km/h (3 Bft)
04.11.2013 10:10 13,0 C 11,7 C 87 % 984,2 hPa 0,0 l/m 0 min 0 min 0,0 UV-I 105 W/m 30,9 km/h (5 Bft)
04.11.2013 10:12 13,0 C 11,7 C 86 % 984,4 hPa 0,0 l/m 0 min 0 min 0,0 UV-I 118 W/m 30,9 km/h (5 Bft)
04.11.2013 10:14 13,0 C 11,7 C 86 % 984,5 hPa 0,0 l/m 0 min 0 min 0,0 UV-I 130 W/m 33,5 km/h (5 Bft)
04.11.2013 10:16 13,1 C 11,7 C 86 % 984,4 hPa 0,0 l/m 0 min 0 min 0,0 UV-I 142 W/m 33,5 km/h (5 Bft)
04.11.2013 10:18 13,1 C 11,7 C 86 % 984,3 hPa 0,0 l/m 0 min 0 min 0,0 UV-I 132 W/m 28,3 km/h (4 Bft)
04.11.2013 10:20 13,2 C 11,7 C 86 % 984,3 hPa 0,0 l/m 0 min 0 min 0,0 UV-I 139 W/m 12,9 km/h (3 Bft)
04.11.2013 10:22 13,2 C 11,7 C 86 % 984,4 hPa 0,0 l/m 0 min 0 min 0,0 UV-I 135 W/m 28,3 km/h (4 Bft)
04.11.2013 10:24 13,2 C 11,7 C 86 % 984,2 hPa 0,0 l/m 0 min 0 min 0,0 UV-I 105 W/m 25,7 km/h (4 Bft)
04.11.2013 10:26 13,2 C 11,7 C 86 % 984,3 hPa 0,0 l/m 0 min 0 min 0,0 UV-I 100 W/m 18,0 km/h (3 Bft)
04.11.2013 10:28 13,2 C 11,7 C 86 % 984,2 hPa 0,0 l/m 0 min 0 min 0,0 UV-I 100 W/m 23,2 km/h (4 Bft)
04.11.2013 10:30 13,2 C 11,7 C 86 % 984,2 hPa 0,0 l/m 0 min 0 min 0,0 UV-I 120 W/m 12,9 km/h (3 Bft)
04.11.2013 10:32 13,2 C 11,7 C 86 % 984,2 hPa 0,0 l/m 0 min 0 min 0,0 UV-I 130 W/m 12,9 km/h (3 Bft)
04.11.2013 10:34 13,2 C 11,7 C 86 % 984,2 hPa 0,0 l/m 0 min 0 min 0,0 UV-I 146 W/m 18,0 km/h (3 Bft)
04.11.2013 10:36 13,2 C 11,7 C 86 % 984,2 hPa 0,0 l/m 0 min 0 min 0,0 UV-I 155 W/m 23,2 km/h (4 Bft)
04.11.2013 10:38 13,2 C 11,7 C 86 % 984,1 hPa 0,0 l/m 0 min 0 min 0,0 UV-I 169 W/m 23,2 km/h (4 Bft)
04.11.2013 10:40 13,2 C 12,2 C 86 % 984,1 hPa 0,0 l/m 0 min 0 min 0,0 UV-I 169 W/m 18,0 km/h (3 Bft)
04.11.2013 10:42 13,2 C 11,7 C 86 % 984,1 hPa 0,0 l/m 0 min 0 min 0,0 UV-I 155 W/m 20,6 km/h (4 Bft)
04.11.2013 10:44 13,3 C 11,7 C 86 % 984,1 hPa 0,0 l/m 0 min 0 min 0,0 UV-I 176 W/m 15,4 km/h (3 Bft)
04.11.2013 10:46 13,3 C 11,7 C 86 % 984,1 hPa 0,0 l/m 0 min 0 min 0,0 UV-I 174 W/m 25,7 km/h (4 Bft)
04.11.2013 10:48 13,3 C 11,7 C 85 % 984,1 hPa 0,0 l/m 0 min 0 min 0,0 UV-I 163 W/m 28,3 km/h (4 Bft)
04.11.2013 10:50 13,3 C 11,7 C 85 % 984,1 hPa 0,0 l/m 0 min 0 min 0,0 UV-I 163 W/m 20,6 km/h (4 Bft)
04.11.2013 10:52 13,3 C 11,7 C 85 % 984,2 hPa 0,0 l/m 2 min 0 min 0,0 UV-I 218 W/m 20,6 km/h (4 Bft)
04.11.2013 10:54 13,3 C 11,7 C 85 % 984,0 hPa 0,0 l/m 0 min 0 min 0,0 UV-I 142 W/m 25,7 km/h (4 Bft)
04.11.2013 10:56 13,4 C 11,7 C 85 % 984,1 hPa 0,0 l/m 0 min 0 min 0,0 UV-I 142 W/m 28,3 km/h (4 Bft)
04.11.2013 10:58 13,3 C 11,7 C 85 % 984,1 hPa 0,0 l/m 0 min 0 min 0,0 UV-I 141 W/m 23,2 km/h (4 Bft)
04.11.2013 11:00 13,3 C 11,7 C 85 % 984,0 hPa 0,0 l/m 0 min 0 min 0,0 UV-I 114 W/m 25,7 km/h (4 Bft)
04.11.2013 11:02 13,3 C 11,7 C 85 % 983,9 hPa 0,0 l/m 0 min 0 min 0,0 UV-I 142 W/m 20,6 km/h (4 Bft)
04.11.2013 11:04 13,3 C 11,7 C 85 % 984,1 hPa 0,0 l/m 2 min 0 min 0,0 UV-I 374 W/m 25,7 km/h (4 Bft)
04.11.2013 11:06 13,4 C 12,2 C 85 % 983,9 hPa 0,0 l/m 2 min 0 min 0,0 UV-I 350 W/m 25,7 km/h (4 Bft)
04.11.2013 11:08 13,5 C 12,2 C 85 % 984,0 hPa 0,0 l/m 2 min 0 min 0,0 UV-I 216 W/m 25,7 km/h (4 Bft)
04.11.2013 11:10 13,6 C 12,2 C 85 % 984,0 hPa 0,0 l/m 0 min 0 min 0,0 UV-I 114 W/m 18,0 km/h (3 Bft)
04.11.2013 11:12 13,6 C 12,2 C 85 % 984,0 hPa 0,0 l/m 0 min 0 min 0,0 UV-I 95 W/m 20,6 km/h (4 Bft)
04.11.2013 11:14 13,6 C 12,2 C 85 % 984,1 hPa 0,0 l/m 0 min 0 min 0,0 UV-I 100 W/m 36,0 km/h (5 Bft)
04.11.2013 11:16 13,6 C 12,2 C 85 % 984,0 hPa 0,0 l/m 0 min 0 min 0,0 UV-I 137 W/m 20,6 km/h (4 Bft)
04.11.2013 11:18 13,6 C 12,2 C 85 % 983,9 hPa 0,0 l/m 0 min 0 min 0,0 UV-I 127 W/m 28,3 km/h (4 Bft)
04.11.2013 11:20 13,6 C 12,2 C 85 % 983,7 hPa 0,0 l/m 0 min 0 min 0,0 UV-I 104 W/m 15,4 km/h (3 Bft)
04.11.2013 11:22 13,6 C 12,2 C 85 % 983,8 hPa 0,0 l/m 0 min 0 min 0,0 UV-I 109 W/m 28,3 km/h (4 Bft)
04.11.2013 11:24 13,7 C 12,2 C 85 % 983,7 hPa 0,0 l/m 0 min 0 min 0,0 UV-I 153 W/m 18,0 km/h (3 Bft)
04.11.2013 11:26 13,9 C 12,8 C 84 % 983,7 hPa 0,0 l/m 2 min 0 min 0,0 UV-I 330 W/m 23,2 km/h (4 Bft)
04.11.2013 11:28 14,1 C 12,8 C 84 % 983,6 hPa 0,0 l/m 2 min 0 min 0,0 UV-I 394 W/m 38,6 km/h (5 Bft)
04.11.2013 11:30 14,2 C 12,8 C 83 % 983,6 hPa 0,0 l/m 2 min 0 min 0,0 UV-I 253 W/m 15,4 km/h (3 Bft)
04.11.2013 11:32 14,3 C 12,8 C 82 % 983,5 hPa 0,0 l/m 2 min 0 min 0,0 UV-I 336 W/m 43,8 km/h (6 Bft)
04.11.2013 11:34 14,4 C 13,3 C 82 % 983,5 hPa 0,0 l/m 2 min 0 min 0,0 UV-I 504 W/m 33,5 km/h (5 Bft)
04.11.2013 11:36 14,7 C 13,3 C 81 % 983,5 hPa 0,0 l/m 2 min 0 min 0,0 UV-I 504 W/m 28,3 km/h (4 Bft)
04.11.2013 11:38 14,8 C 13,3 C 81 % 983,5 hPa 0,0 l/m 2 min 0 min 0,0 UV-I 455 W/m 25,7 km/h (4 Bft)
04.11.2013 11:40 14,9 C 13,3 C 80 % 983,4 hPa 0,0 l/m 2 min 0 min 0,0 UV-I 445 W/m 23,2 km/h (4 Bft)
04.11.2013 11:42 14,9 C 13,3 C 80 % 983,2 hPa 0,0 l/m 2 min 0 min 0,0 UV-I 260 W/m 20,6 km/h (4 Bft)
04.11.2013 11:44 14,9 C 13,3 C 80 % 983,4 hPa 0,0 l/m 2 min 0 min 0,0 UV-I 360 W/m 28,3 km/h (4 Bft)
04.11.2013 11:46 14,9 C 13,3 C 79 % 983,4 hPa 0,0 l/m 0 min 0 min 0,0 UV-I 183 W/m 23,2 km/h (4 Bft)
04.11.2013 11:48 14,8 C 13,3 C 79 % 983,3 hPa 0,0 l/m 2 min 0 min 0,0 UV-I 239 W/m 28,3 km/h (4 Bft)
04.11.2013 11:50 14,7 C 13,3 C 79 % 983,4 hPa 0,0 l/m 0 min 0 min 0,0 UV-I 211 W/m 33,5 km/h (5 Bft)
04.11.2013 11:52 14,7 C 13,3 C 79 % 983,2 hPa 0,0 l/m 0 min 0 min 0,0 UV-I 206 W/m 25,7 km/h (4 Bft)
04.11.2013 11:54 14,6 C 13,3 C 79 % 983,4 hPa 0,0 l/m 0 min 0 min 0,0 UV-I 213 W/m 23,2 km/h (4 Bft)
04.11.2013 11:56 14,6 C 13,3 C 79 % 983,3 hPa 0,0 l/m 0 min 0 min 0,0 UV-I 211 W/m 23,2 km/h (4 Bft)
04.11.2013 11:58 14,5 C 13,3 C 80 % 983,3 hPa 0,0 l/m 0 min 0 min 0,0 UV-I 153 W/m 20,6 km/h (4 Bft)
04.11.2013 12:00 14,4 C 12,8 C 80 % 983,2 hPa 0,0 l/m 0 min 0 min 0,0 UV-I 109 W/m 25,7 km/h (4 Bft)
04.11.2013 12:02 14,4 C 12,8 C 80 % 983,3 hPa 0,0 l/m 0 min 0 min 0,0 UV-I 97 W/m 23,2 km/h (4 Bft)
04.11.2013 12:06 14,2 C 12,8 C 80 % 983,3 hPa 0,0 l/m 0 min 0 min 0,0 UV-I 97 W/m 30,9 km/h (5 Bft)
04.11.2013 12:08 14,2 C 12,8 C 80 % 983,2 hPa 0,0 l/m 0 min 0 min 0,0 UV-I 72 W/m 18,0 km/h (3 Bft)
04.11.2013 12:10 14,2 C 12,8 C 80 % 983,2 hPa 0,0 l/m 0 min 0 min 0,0 UV-I 69 W/m 33,5 km/h (5 Bft)
04.11.2013 12:12 14,2 C 12,8 C 80 % 983,2 hPa 0,0 l/m 0 min 0 min 0,0 UV-I 69 W/m 28,3 km/h (4 Bft)
04.11.2013 12:14 14,2 C 12,8 C 80 % 983,2 hPa 0,0 l/m 0 min 0 min 0,0 UV-I 83 W/m 30,9 km/h (5 Bft)
04.11.2013 12:16 14,2 C 12,8 C 80 % 983,2 hPa 0,0 l/m 0 min 0 min 0,0 UV-I 81 W/m 15,4 km/h (3 Bft)
04.11.2013 12:18 14,2 C 12,8 C 80 % 983,2 hPa 0,0 l/m 0 min 0 min 0,0 UV-I 60 W/m 20,6 km/h (4 Bft)
04.11.2013 12:20 14,2 C 12,2 C 80 % 983,0 hPa 0,0 l/m 0 min 0 min 0,0 UV-I 98 W/m 20,6 km/h (4 Bft)
04.11.2013 12:22 14,2 C 12,8 C 80 % 983,0 hPa 0,0 l/m 0 min 0 min 0,0 UV-I 149 W/m 30,9 km/h (5 Bft)
04.11.2013 12:24 14,2 C 12,8 C 81 % 983,0 hPa 0,0 l/m 0 min 0 min 0,0 UV-I 172 W/m 12,9 km/h (3 Bft)
04.11.2013 12:26 14,2 C 12,8 C 81 % 983,1 hPa 0,0 l/m 0 min 0 min 0,0 UV-I 169 W/m 10,3 km/h (2 Bft)
04.11.2013 12:28 14,2 C 12,8 C 81 % 982,9 hPa 0,0 l/m 0 min 0 min 0,0 UV-I 141 W/m 28,3 km/h (4 Bft)
04.11.2013 12:30 14,2 C 12,8 C 81 % 983,0 hPa 0,0 l/m 0 min 0 min 0,0 UV-I 153 W/m 28,3 km/h (4 Bft)
04.11.2013 12:32 14,2 C 12,8 C 81 % 983,0 hPa 0,0 l/m 0 min 0 min 0,0 UV-I 120 W/m 20,6 km/h (4 Bft)
04.11.2013 12:34 14,2 C 12,8 C 81 % 982,9 hPa 0,0 l/m 0 min 0 min 0,0 UV-I 105 W/m 30,9 km/h (5 Bft)
04.11.2013 12:36 14,2 C 12,8 C 81 % 982,9 hPa 0,0 l/m 0 min 0 min 0,0 UV-I 118 W/m 36,0 km/h (5 Bft)
04.11.2013 12:38 14,2 C 12,8 C 81 % 983,0 hPa 0,0 l/m 0 min 2 min 0,0 UV-I 118 W/m 30,9 km/h (5 Bft)
04.11.2013 12:40 14,2 C 12,8 C 81 % 982,9 hPa 0,0 l/m 0 min 0 min 0,0 UV-I 93 W/m 23,2 km/h (4 Bft)
04.11.2013 12:42 14,2 C 12,2 C 81 % 982,9 hPa 0,0 l/m 0 min 0 min 0,0 UV-I 91 W/m 30,9 km/h (5 Bft)
04.11.2013 12:44 14,1 C 12,2 C 81 % 982,9 hPa 0,0 l/m 0 min 0 min 0,0 UV-I 74 W/m 0,0 km/h (0 Bft)
04.11.2013 12:46 14,1 C 12,2 C 82 % 982,8 hPa 0,0 l/m 0 min 2 min 0,0 UV-I 77 W/m 23,2 km/h (4 Bft)
04.11.2013 12:48 14,0 C 12,2 C 82 % 983,0 hPa 0,0 l/m 0 min 2 min 0,0 UV-I 70 W/m 25,7 km/h (4 Bft)
04.11.2013 12:50 14,0 C 12,2 C 82 % 983,0 hPa 0,0 l/m 0 min 2 min 0,0 UV-I 42 W/m 12,9 km/h (3 Bft)
04.11.2013 12:52 13,9 C 12,2 C 82 % 983,0 hPa 0,0 l/m 0 min 2 min 0,0 UV-I 35 W/m 30,9 km/h (5 Bft)
04.11.2013 12:54 13,9 C 11,7 C 83 % 983,1 hPa 0,0 l/m 0 min 2 min 0,0 UV-I 33 W/m 23,2 km/h (4 Bft)
04.11.2013 12:56 13,7 C 11,1 C 84 % 983,3 hPa 0,0 l/m 0 min 2 min 0,0 UV-I 51 W/m 23,2 km/h (4 Bft)
04.11.2013 12:58 13,4 C 11,1 C 86 % 983,3 hPa 0,0 l/m 0 min 2 min 0,0 UV-I 102 W/m 23,2 km/h (4 Bft)
04.11.2013 13:00 13,2 C 10,6 C 87 % 983,2 hPa 0,0 l/m 0 min 2 min 0,0 UV-I 105 W/m 23,2 km/h (4 Bft)
04.11.2013 13:02 13,0 C 10,6 C 88 % 983,4 hPa 0,0 l/m 0 min 2 min 0,0 UV-I 79 W/m 18,0 km/h (3 Bft)
04.11.2013 13:04 12,9 C 10,6 C 88 % 983,3 hPa 0,0 l/m 0 min 2 min 0,0 UV-I 54 W/m 15,4 km/h (3 Bft)
04.11.2013 13:06 12,8 C 10,6 C 89 % 983,6 hPa 0,2 l/m 0 min 2 min 0,0 UV-I 77 W/m 23,2 km/h (4 Bft)
04.11.2013 13:08 12,7 C 10,6 C 90 % 983,3 hPa 0,0 l/m 0 min 2 min 0,0 UV-I 123 W/m 20,6 km/h (4 Bft)
04.11.2013 13:10 12,6 C 10,6 C 90 % 983,3 hPa 0,0 l/m 0 min 2 min 0,0 UV-I 128 W/m 36,0 km/h (5 Bft)
04.11.2013 13:12 12,5 C 10,6 C 91 % 983,3 hPa 0,0 l/m 0 min 2 min 0,0 UV-I 113 W/m 12,9 km/h (3 Bft)
04.11.2013 13:14 12,5 C 11,1 C 92 % 983,3 hPa 0,0 l/m 0 min 2 min 0,0 UV-I 116 W/m 10,3 km/h (2 Bft)
04.11.2013 13:16 12,4 C 11,1 C 92 % 983,2 hPa 0,0 l/m 0 min 2 min 0,0 UV-I 148 W/m 18,0 km/h (3 Bft)
04.11.2013 13:18 12,4 C 11,1 C 93 % 983,1 hPa 0,0 l/m 0 min 0 min 0,0 UV-I 176 W/m 15,4 km/h (3 Bft)
04.11.2013 13:20 12,4 C 11,1 C 93 % 983,1 hPa 0,0 l/m 0 min 0 min 0,0 UV-I 160 W/m 23,2 km/h (4 Bft)
04.11.2013 13:22 12,5 C 11,1 C 93 % 983,0 hPa 0,0 l/m 0 min 0 min 0,0 UV-I 151 W/m 10,3 km/h (2 Bft)
04.11.2013 13:24 12,5 C 11,1 C 93 % 983,1 hPa 0,0 l/m 0 min 0 min 0,0 UV-I 156 W/m 12,9 km/h (3 Bft)
04.11.2013 13:26 12,6 C 11,1 C 93 % 983,0 hPa 0,0 l/m 0 min 0 min 0,0 UV-I 137 W/m 12,9 km/h (3 Bft)
04.11.2013 13:28 12,6 C 11,1 C 93 % 983,1 hPa 0,0 l/m 0 min 0 min 0,0 UV-I 114 W/m 7,7 km/h (2 Bft)
04.11.2013 13:30 12,6 C 11,1 C 93 % 983,0 hPa 0,0 l/m 0 min 0 min 0,0 UV-I 105 W/m 7,7 km/h (2 Bft)
04.11.2013 13:32 12,6 C 11,1 C 93 % 983,2 hPa 0,0 l/m 0 min 0 min 0,0 UV-I 111 W/m 30,9 km/h (5 Bft)
04.11.2013 13:34 12,6 C 11,1 C 93 % 983,0 hPa 0,0 l/m 0 min 0 min 0,0 UV-I 121 W/m 20,6 km/h (4 Bft)
04.11.2013 13:36 12,7 C 11,1 C 93 % 982,9 hPa 0,0 l/m 0 min 0 min 0,0 UV-I 127 W/m 18,0 km/h (3 Bft)
04.11.2013 13:38 12,7 C 11,1 C 92 % 983,1 hPa 0,0 l/m 0 min 0 min 0,0 UV-I 137 W/m 12,9 km/h (3 Bft)
04.11.2013 13:40 12,7 C 11,1 C 92 % 983,0 hPa 0,0 l/m 0 min 0 min 0,0 UV-I 125 W/m 15,4 km/h (3 Bft)
04.11.2013 13:42 12,8 C 11,1 C 92 % 983,1 hPa 0,0 l/m 0 min 0 min 0,0 UV-I 105 W/m 25,7 km/h (4 Bft)
04.11.2013 13:44 12,8 C 11,1 C 92 % 983,0 hPa 0,0 l/m 0 min 0 min 0,0 UV-I 100 W/m 20,6 km/h (4 Bft)
04.11.2013 13:46 12,8 C 11,1 C 91 % 982,9 hPa 0,0 l/m 0 min 0 min 0,0 UV-I 93 W/m 20,6 km/h (4 Bft)
04.11.2013 13:48 12,9 C 11,1 C 91 % 982,9 hPa 0,0 l/m 0 min 0 min 0,0 UV-I 90 W/m 18,0 km/h (3 Bft)
04.11.2013 13:50 12,9 C 11,1 C 90 % 983,0 hPa 0,0 l/m 0 min 0 min 0,0 UV-I 93 W/m 12,9 km/h (3 Bft)
04.11.2013 13:52 12,9 C 11,1 C 90 % 982,9 hPa 0,0 l/m 0 min 0 min 0,0 UV-I 91 W/m 20,6 km/h (4 Bft)
04.11.2013 13:54 12,9 C 11,1 C 90 % 982,9 hPa 0,0 l/m 0 min 0 min 0,0 UV-I 95 W/m 28,3 km/h (4 Bft)
04.11.2013 13:56 13,0 C 11,1 C 90 % 982,9 hPa 0,0 l/m 0 min 0 min 0,0 UV-I 88 W/m 25,7 km/h (4 Bft)
04.11.2013 13:58 13,0 C 11,1 C 89 % 982,9 hPa 0,0 l/m 0 min 2 min 0,0 UV-I 86 W/m 12,9 km/h (3 Bft)
04.11.2013 14:00 13,0 C 11,1 C 89 % 982,8 hPa 0,0 l/m 0 min 2 min 0,0 UV-I 70 W/m 36,0 km/h (5 Bft)
04.11.2013 14:02 13,0 C 11,1 C 88 % 983,0 hPa 0,0 l/m 0 min 2 min 0,0 UV-I 60 W/m 18,0 km/h (3 Bft)
04.11.2013 14:04 13,0 C 10,6 C 88 % 983,0 hPa 0,0 l/m 0 min 2 min 0,0 UV-I 47 W/m 20,6 km/h (4 Bft)
04.11.2013 14:06 13,0 C 10,6 C 88 % 983,1 hPa 0,0 l/m 0 min 2 min 0,0 UV-I 47 W/m 25,7 km/h (4 Bft)
04.11.2013 14:08 12,9 C 10,6 C 88 % 983,1 hPa 0,0 l/m 0 min 2 min 0,0 UV-I 49 W/m 20,6 km/h (4 Bft)
04.11.2013 14:10 12,9 C 10,6 C 88 % 983,1 hPa 0,0 l/m 0 min 2 min 0,0 UV-I 62 W/m 12,9 km/h (3 Bft)
04.11.2013 14:12 12,8 C 10,6 C 89 % 983,0 hPa 0,0 l/m 0 min 2 min 0,0 UV-I 67 W/m 28,3 km/h (4 Bft)
04.11.2013 14:14 12,8 C 10,6 C 89 % 983,1 hPa 0,2 l/m 0 min 2 min 0,0 UV-I 77 W/m 15,4 km/h (3 Bft)
04.11.2013 14:16 12,7 C 10,6 C 89 % 983,0 hPa 0,0 l/m 0 min 2 min 0,0 UV-I 91 W/m 10,3 km/h (2 Bft)
04.11.2013 14:18 12,7 C 10,6 C 90 % 983,1 hPa 0,0 l/m 0 min 2 min 0,0 UV-I 90 W/m 10,3 km/h (2 Bft)
04.11.2013 14:20 12,6 C 10,6 C 90 % 983,1 hPa 0,0 l/m 0 min 2 min 0,0 UV-I 69 W/m 18,0 km/h (3 Bft)
04.11.2013 14:22 12,6 C 10,6 C 90 % 983,1 hPa 0,0 l/m 0 min 2 min 0,0 UV-I 63 W/m 20,6 km/h (4 Bft)
04.11.2013 14:24 12,6 C 10,6 C 90 % 983,0 hPa 0,0 l/m 0 min 2 min 0,0 UV-I 40 W/m 23,2 km/h (4 Bft)
04.11.2013 14:26 12,6 C 10,6 C 90 % 983,1 hPa 0,0 l/m 0 min 2 min 0,0 UV-I 33 W/m 12,9 km/h (3 Bft)
04.11.2013 14:28 12,5 C 10,6 C 90 % 983,0 hPa 0,0 l/m 0 min 2 min 0,0 UV-I 23 W/m 18,0 km/h (3 Bft)
04.11.2013 14:30 12,5 C 10,6 C 90 % 983,5 hPa 0,0 l/m 0 min 2 min 0,0 UV-I 7 W/m 30,9 km/h (5 Bft)
04.11.2013 14:32 12,2 C 9,4 C 89 % 983,4 hPa 0,0 l/m 0 min 2 min 0,0 UV-I 9 W/m 20,6 km/h (4 Bft)
04.11.2013 14:34 11,7 C 8,3 C 88 % 983,7 hPa 0,0 l/m 0 min 2 min 0,0 UV-I 7 W/m 28,3 km/h (4 Bft)
04.11.2013 14:36 11,3 C 8,3 C 87 % 983,8 hPa 0,0 l/m 0 min 2 min 0,0 UV-I 11 W/m 20,6 km/h (4 Bft)
04.11.2013 14:38 10,8 C 8,3 C 87 % 983,8 hPa 0,0 l/m 0 min 2 min 0,0 UV-I 14 W/m 18,0 km/h (3 Bft)
04.11.2013 14:40 10,4 C 7,8 C 88 % 983,9 hPa 0,2 l/m 0 min 2 min 0,0 UV-I 19 W/m 25,7 km/h (4 Bft)
04.11.2013 14:42 10,0 C 7,8 C 89 % 984,0 hPa 0,0 l/m 0 min 2 min 0,0 UV-I 19 W/m 23,2 km/h (4 Bft)
04.11.2013 14:44 9,7 C 7,8 C 90 % 984,2 hPa 0,0 l/m 0 min 2 min 0,0 UV-I 18 W/m 12,9 km/h (3 Bft)
04.11.2013 14:46 9,5 C 7,8 C 90 % 984,3 hPa 0,0 l/m 0 min 2 min 0,0 UV-I 16 W/m 15,4 km/h (3 Bft)
04.11.2013 14:48 9,3 C 7,8 C 91 % 984,3 hPa 0,0 l/m 0 min 2 min 0,0 UV-I 19 W/m 18,0 km/h (3 Bft)
04.11.2013 14:50 9,2 C 7,8 C 92 % 984,4 hPa 0,2 l/m 0 min 2 min 0,0 UV-I 26 W/m 7,7 km/h (2 Bft)
04.11.2013 14:52 9,1 C 7,8 C 92 % 984,4 hPa 0,0 l/m 0 min 2 min 0,0 UV-I 23 W/m 12,9 km/h (3 Bft)
04.11.2013 14:54 9,0 C 7,8 C 92 % 984,6 hPa 0,2 l/m 0 min 2 min 0,0 UV-I 19 W/m 15,4 km/h (3 Bft)
04.11.2013 14:56 8,9 C 7,8 C 93 % 984,6 hPa 0,2 l/m 0 min 2 min 0,0 UV-I 23 W/m 10,3 km/h (2 Bft)
04.11.2013 14:58 8,8 C 7,2 C 93 % 984,6 hPa 0,0 l/m 0 min 2 min 0,0 UV-I 26 W/m 18,0 km/h (3 Bft)
04.11.2013 15:00 8,7 C 7,2 C 93 % 984,8 hPa 0,2 l/m 0 min 2 min 0,0 UV-I 32 W/m 23,2 km/h (4 Bft)
04.11.2013 15:02 8,7 C 7,2 C 94 % 984,7 hPa 0,0 l/m 0 min 2 min 0,0 UV-I 33 W/m 15,4 km/h (3 Bft)
04.11.2013 15:04 8,6 C 7,2 C 94 % 984,8 hPa 0,0 l/m 0 min 2 min 0,0 UV-I 23 W/m 18,0 km/h (3 Bft)
04.11.2013 15:06 8,6 C 7,2 C 94 % 984,9 hPa 0,0 l/m 0 min 2 min 0,0 UV-I 19 W/m 15,4 km/h (3 Bft)
04.11.2013 15:08 8,6 C 7,2 C 94 % 985,1 hPa 0,2 l/m 0 min 2 min 0,0 UV-I 21 W/m 12,9 km/h (3 Bft)
04.11.2013 15:10 8,6 C 7,2 C 94 % 985,1 hPa 0,0 l/m 0 min 2 min 0,0 UV-I 28 W/m 23,2 km/h (4 Bft)
04.11.2013 15:12 8,5 C 7,2 C 95 % 985,1 hPa 0,0 l/m 0 min 2 min 0,0 UV-I 42 W/m 23,2 km/h (4 Bft)
04.11.2013 15:14 8,4 C 7,2 C 95 % 985,2 hPa 0,0 l/m 0 min 2 min 0,0 UV-I 42 W/m 10,3 km/h (2 Bft)
04.11.2013 15:16 8,4 C 7,2 C 95 % 985,3 hPa 0,0 l/m 0 min 2 min 0,0 UV-I 47 W/m 12,9 km/h (3 Bft)
04.11.2013 15:18 8,3 C 7,2 C 95 % 985,3 hPa 0,0 l/m 0 min 0 min 0,0 UV-I 49 W/m 10,3 km/h (2 Bft)
04.11.2013 15:20 8,3 C 7,2 C 95 % 985,4 hPa 0,0 l/m 0 min 2 min 0,0 UV-I 54 W/m 18,0 km/h (3 Bft)
04.11.2013 15:22 8,2 C 7,2 C 95 % 985,5 hPa 0,0 l/m 0 min 2 min 0,0 UV-I 53 W/m 18,0 km/h (3 Bft)
04.11.2013 15:24 8,2 C 7,2 C 95 % 985,6 hPa 0,0 l/m 0 min 2 min 0,0 UV-I 37 W/m 15,4 km/h (3 Bft)
04.11.2013 15:26 8,1 C 7,2 C 95 % 985,6 hPa 0,0 l/m 0 min 2 min 0,0 UV-I 23 W/m 15,4 km/h (3 Bft)
04.11.2013 15:28 8,1 C 6,7 C 95 % 985,8 hPa 0,0 l/m 0 min 2 min 0,0 UV-I 18 W/m 20,6 km/h (4 Bft)
04.11.2013 15:30 8,0 C 6,7 C 95 % 985,8 hPa 0,2 l/m 0 min 2 min 0,0 UV-I 28 W/m 18,0 km/h (3 Bft)
04.11.2013 15:32 7,9 C 6,7 C 95 % 986,0 hPa 0,0 l/m 0 min 2 min 0,0 UV-I 21 W/m 20,6 km/h (4 Bft)
04.11.2013 15:34 7,9 C 6,7 C 95 % 986,0 hPa 0,0 l/m 0 min 2 min 0,0 UV-I 23 W/m 15,4 km/h (3 Bft)
04.11.2013 15:36 7,8 C 6,7 C 95 % 986,1 hPa 0,0 l/m 0 min 2 min 0,0 UV-I 16 W/m 15,4 km/h (3 Bft)
04.11.2013 15:38 7,8 C 6,7 C 95 % 986,2 hPa 0,0 l/m 0 min 2 min 0,0 UV-I 16 W/m 18,0 km/h (3 Bft)
04.11.2013 15:40 7,8 C 6,7 C 95 % 986,4 hPa 0,0 l/m 0 min 2 min 0,0 UV-I 16 W/m 12,9 km/h (3 Bft)
04.11.2013 15:42 7,7 C 6,7 C 95 % 986,4 hPa 0,0 l/m 0 min 0 min 0,0 UV-I 16 W/m 12,9 km/h (3 Bft)
04.11.2013 15:44 7,7 C 6,7 C 95 % 986,4 hPa 0,0 l/m 0 min 2 min 0,0 UV-I 16 W/m 25,7 km/h (4 Bft)
04.11.2013 15:46 7,8 C 6,7 C 95 % 986,6 hPa 0,0 l/m 0 min 2 min 0,0 UV-I 16 W/m 12,9 km/h (3 Bft)
04.11.2013 15:48 7,7 C 6,7 C 96 % 986,7 hPa 0,0 l/m 0 min 2 min 0,0 UV-I 18 W/m 12,9 km/h (3 Bft)
04.11.2013 15:50 7,7 C 6,7 C 96 % 986,6 hPa 0,0 l/m 0 min 2 min 0,0 UV-I 16 W/m 15,4 km/h (3 Bft)
04.11.2013 15:52 7,7 C 6,7 C 96 % 986,7 hPa 0,0 l/m 0 min 2 min 0,0 UV-I 16 W/m 15,4 km/h (3 Bft)
04.11.2013 15:54 7,7 C 6,7 C 96 % 986,8 hPa 0,2 l/m 0 min 2 min 0,0 UV-I 18 W/m 7,7 km/h (2 Bft)
04.11.2013 15:56 7,6 C 6,7 C 95 % 986,9 hPa 0,0 l/m 0 min 2 min 0,0 UV-I 19 W/m 15,4 km/h (3 Bft)
04.11.2013 15:58 7,6 C 6,1 C 95 % 987,0 hPa 0,0 l/m 0 min 2 min 0,0 UV-I 19 W/m 12,9 km/h (3 Bft)
04.11.2013 16:00 7,6 C 6,1 C 95 % 987,0 hPa 0,0 l/m 0 min 2 min 0,0 UV-I 16 W/m 15,4 km/h (3 Bft)
04.11.2013 16:02 7,6 C 6,1 C 95 % 987,2 hPa 0,0 l/m 0 min 2 min 0,0 UV-I 14 W/m 12,9 km/h (3 Bft)
04.11.2013 16:04 7,5 C 6,1 C 96 % 987,2 hPa 0,0 l/m 0 min 2 min 0,0 UV-I 12 W/m 20,6 km/h (4 Bft)
04.11.2013 16:06 7,5 C 6,1 C 96 % 987,3 hPa 0,0 l/m 0 min 0 min 0,0 UV-I 14 W/m 18,0 km/h (3 Bft)
04.11.2013 16:08 7,5 C 6,1 C 96 % 987,4 hPa 0,0 l/m 0 min 2 min 0,0 UV-I 14 W/m 23,2 km/h (4 Bft)
04.11.2013 16:10 7,5 C 6,1 C 96 % 987,5 hPa 0,0 l/m 0 min 2 min 0,0 UV-I 14 W/m 2,6 km/h (1 Bft)
04.11.2013 16:12 7,5 C 6,1 C 96 % 987,6 hPa 0,0 l/m 0 min 2 min 0,0 UV-I 9 W/m 20,6 km/h (4 Bft)
04.11.2013 16:14 7,5 C 6,1 C 96 % 987,6 hPa 0,0 l/m 0 min 2 min 0,0 UV-I 12 W/m 5,1 km/h (1 Bft)
04.11.2013 16:16 7,5 C 6,1 C 96 % 987,7 hPa 0,0 l/m 0 min 2 min 0,0 UV-I 14 W/m 2,6 km/h (1 Bft)
04.11.2013 16:18 7,5 C 6,7 C 96 % 987,7 hPa 0,0 l/m 0 min 2 min 0,0 UV-I 12 W/m 5,1 km/h (1 Bft)
04.11.2013 16:20 7,6 C 6,7 C 96 % 987,8 hPa 0,0 l/m 0 min 2 min 0,0 UV-I 12 W/m 15,4 km/h (3 Bft)
04.11.2013 16:22 7,6 C 6,7 C 96 % 987,9 hPa 0,0 l/m 0 min 2 min 0,0 UV-I 12 W/m 15,4 km/h (3 Bft)
04.11.2013 16:24 7,6 C 6,1 C 96 % 988,0 hPa 0,0 l/m 0 min 2 min 0,0 UV-I 11 W/m 7,7 km/h (2 Bft)
04.11.2013 16:26 7,6 C 6,7 C 96 % 988,0 hPa 0,0 l/m 0 min 2 min 0,0 UV-I 11 W/m 10,3 km/h (2 Bft)
04.11.2013 16:28 7,6 C 6,7 C 96 % 988,0 hPa 0,0 l/m 0 min 2 min 0,0 UV-I 11 W/m 28,3 km/h (4 Bft)
04.11.2013 16:30 7,6 C 6,7 C 96 % 988,1 hPa 0,0 l/m 0 min 2 min 0,0 UV-I 11 W/m 10,3 km/h (2 Bft)
04.11.2013 16:32 7,6 C 6,7 C 96 % 988,3 hPa 0,0 l/m 0 min 2 min 0,0 UV-I 11 W/m 0,0 km/h (0 Bft)
04.11.2013 16:34 7,6 C 6,7 C 96 % 988,4 hPa 0,0 l/m 0 min 2 min 0,0 UV-I 9 W/m 0,0 km/h (0 Bft)
04.11.2013 16:36 7,6 C 6,7 C 96 % 988,5 hPa 0,0 l/m 0 min 2 min 0,0 UV-I 7 W/m 7,7 km/h (2 Bft)
04.11.2013 16:38 7,6 C 6,7 C 96 % 988,5 hPa 0,0 l/m 0 min 2 min 0,0 UV-I 7 W/m 0,0 km/h (0 Bft)
04.11.2013 16:40 7,6 C 6,7 C 96 % 988,7 hPa 0,0 l/m 0 min 2 min 0,0 UV-I 7 W/m 2,6 km/h (1 Bft)
04.11.2013 16:42 7,6 C 6,7 C 96 % 988,7 hPa 0,0 l/m 0 min 2 min 0,0 UV-I 7 W/m 12,9 km/h (3 Bft)
04.11.2013 16:44 7,6 C 6,7 C 96 % 988,7 hPa 0,0 l/m 0 min 2 min 0,0 UV-I 7 W/m 5,1 km/h (1 Bft)
04.11.2013 16:46 7,6 C 6,7 C 96 % 988,8 hPa 0,0 l/m 0 min 2 min 0,0 UV-I 7 W/m 10,3 km/h (2 Bft)
04.11.2013 16:48 7,6 C 6,7 C 96 % 988,9 hPa 0,0 l/m 0 min 2 min 0,0 UV-I 7 W/m 5,1 km/h (1 Bft)
04.11.2013 16:50 7,6 C 6,7 C 96 % 988,9 hPa 0,0 l/m 0 min 2 min 0,0 UV-I 5 W/m 5,1 km/h (1 Bft)
04.11.2013 16:52 7,6 C 6,7 C 96 % 988,9 hPa 0,0 l/m 0 min 0 min 0,0 UV-I 5 W/m 0,0 km/h (0 Bft)
04.11.2013 16:54 7,6 C 6,7 C 96 % 989,0 hPa 0,0 l/m 0 min 2 min 0,0 UV-I 5 W/m 0,0 km/h (0 Bft)
04.11.2013 16:56 7,6 C 6,7 C 96 % 989,0 hPa 0,0 l/m 0 min 2 min 0,0 UV-I 0 W/m 10,3 km/h (2 Bft)
04.11.2013 16:58 7,6 C 6,7 C 96 % 989,1 hPa 0,0 l/m 0 min 2 min 0,0 UV-I 0 W/m 0,0 km/h (0 Bft)
04.11.2013 17:00 7,6 C 6,7 C 96 % 989,2 hPa 0,0 l/m 0 min 2 min 0,0 UV-I 0 W/m 18,0 km/h (3 Bft)
04.11.2013 17:02 7,5 C 6,1 C 96 % 989,2 hPa 0,0 l/m 0 min 2 min 0,0 UV-I 0 W/m 0,0 km/h (0 Bft)
04.11.2013 17:04 7,6 C 6,7 C 96 % 989,3 hPa 0,2 l/m 0 min 2 min 0,0 UV-I 0 W/m 0,0 km/h (0 Bft)
04.11.2013 17:06 7,6 C 6,7 C 96 % 989,5 hPa 0,0 l/m 0 min 2 min 0,0 UV-I 0 W/m 0,0 km/h (0 Bft)
04.11.2013 17:08 7,6 C 6,1 C 96 % 989,5 hPa 0,0 l/m 0 min 2 min 0,0 UV-I 0 W/m 5,1 km/h (1 Bft)
04.11.2013 17:10 7,6 C 6,1 C 96 % 989,5 hPa 0,0 l/m 0 min 0 min 0,0 UV-I 0 W/m 12,9 km/h (3 Bft)
04.11.2013 17:12 7,6 C 6,1 C 96 % 989,6 hPa 0,0 l/m 0 min 2 min 0,0 UV-I 0 W/m 0,0 km/h (0 Bft)
04.11.2013 17:14 7,6 C 6,1 C 96 % 989,7 hPa 0,0 l/m 0 min 0 min 0,0 UV-I 0 W/m 10,3 km/h (2 Bft)
04.11.2013 17:16 7,6 C 6,7 C 96 % 989,8 hPa 0,0 l/m 0 min 0 min 0,0 UV-I 0 W/m 5,1 km/h (1 Bft)
04.11.2013 17:18 7,6 C 6,1 C 96 % 989,8 hPa 0,0 l/m 0 min 0 min 0,0 UV-I 0 W/m 5,1 km/h (1 Bft)
04.11.2013 17:20 7,6 C 6,7 C 96 % 989,9 hPa 0,0 l/m 0 min 0 min 0,0 UV-I 0 W/m 0,0 km/h (0 Bft)
04.11.2013 17:22 7,6 C 6,7 C 96 % 990,0 hPa 0,0 l/m 0 min 0 min 0,0 UV-I 0 W/m 0,0 km/h (0 Bft)
04.11.2013 17:24 7,6 C 6,7 C 96 % 990,1 hPa 0,0 l/m 0 min 0 min 0,0 UV-I 0 W/m 5,1 km/h (1 Bft)
04.11.2013 17:26 7,6 C 6,7 C 96 % 990,1 hPa 0,0 l/m 0 min 0 min 0,0 UV-I 0 W/m 0,0 km/h (0 Bft)
04.11.2013 17:28 7,6 C 6,1 C 96 % 990,2 hPa 0,0 l/m 0 min 0 min 0,0 UV-I 0 W/m 0,0 km/h (0 Bft)
04.11.2013 17:30 7,6 C 6,1 C 96 % 990,3 hPa 0,0 l/m 0 min 0 min 0,0 UV-I 0 W/m 0,0 km/h (0 Bft)
04.11.2013 17:32 7,6 C 6,7 C 96 % 990,5 hPa 0,0 l/m 0 min 0 min 0,0 UV-I 0 W/m 0,0 km/h (0 Bft)
04.11.2013 17:34 7,6 C 6,7 C 96 % 990,5 hPa 0,0 l/m 0 min 0 min 0,0 UV-I 0 W/m 0,0 km/h (0 Bft)
04.11.2013 17:36 7,6 C 6,1 C 96 % 990,5 hPa 0,0 l/m 0 min 0 min 0,0 UV-I 0 W/m 2,6 km/h (1 Bft)
04.11.2013 17:38 7,6 C 6,7 C 96 % 990,6 hPa 0,0 l/m 0 min 0 min 0,0 UV-I 0 W/m 0,0 km/h (0 Bft)
04.11.2013 17:40 7,6 C 6,7 C 96 % 990,6 hPa 0,0 l/m 0 min 0 min 0,0 UV-I 0 W/m 0,0 km/h (0 Bft)
04.11.2013 17:42 7,6 C 6,1 C 96 % 990,7 hPa 0,0 l/m 0 min 0 min 0,0 UV-I 0 W/m 18,0 km/h (3 Bft)
04.11.2013 17:44 7,6 C 6,1 C 96 % 990,7 hPa 0,0 l/m 0 min 0 min 0,0 UV-I 0 W/m 0,0 km/h (0 Bft)
04.11.2013 17:46 7,5 C 6,1 C 96 % 990,8 hPa 0,0 l/m 0 min 0 min 0,0 UV-I 0 W/m 5,1 km/h (1 Bft)
04.11.2013 17:48 7,6 C 6,1 C 96 % 990,8 hPa 0,0 l/m 0 min 0 min 0,0 UV-I 0 W/m 0,0 km/h (0 Bft)
04.11.2013 17:50 7,5 C 6,1 C 96 % 990,9 hPa 0,0 l/m 0 min 0 min 0,0 UV-I 0 W/m 5,1 km/h (1 Bft)
04.11.2013 17:52 7,5 C 6,1 C 96 % 990,9 hPa 0,0 l/m 0 min 0 min 0,0 UV-I 0 W/m 10,3 km/h (2 Bft)
04.11.2013 17:54 7,5 C 6,1 C 96 % 990,9 hPa 0,0 l/m 0 min 0 min 0,0 UV-I 0 W/m 12,9 km/h (3 Bft)
04.11.2013 17:56 7,4 C 6,1 C 96 % 991,1 hPa 0,0 l/m 0 min 0 min 0,0 UV-I 0 W/m 10,3 km/h (2 Bft)
04.11.2013 17:58 7,5 C 6,1 C 96 % 991,1 hPa 0,0 l/m 0 min 0 min 0,0 UV-I 0 W/m 2,6 km/h (1 Bft)
04.11.2013 18:00 7,4 C 6,1 C 96 % 991,2 hPa 0,0 l/m 0 min 0 min 0,0 UV-I 0 W/m 0,0 km/h (0 Bft)
04.11.2013 18:02 7,4 C 6,1 C 96 % 991,2 hPa 0,0 l/m 0 min 0 min 0,0 UV-I 0 W/m 2,6 km/h (1 Bft)
04.11.2013 18:06 7,4 C 6,1 C 95 % 991,4 hPa 0,0 l/m 0 min 0 min 0,0 UV-I 0 W/m 2,6 km/h (1 Bft)
04.11.2013 18:08 7,4 C 6,1 C 95 % 991,3 hPa 0,0 l/m 0 min 0 min 0,0 UV-I 0 W/m 5,1 km/h (1 Bft)
04.11.2013 18:10 7,3 C 6,1 C 95 % 991,4 hPa 0,0 l/m 0 min 0 min 0,0 UV-I 0 W/m 10,3 km/h (2 Bft)
04.11.2013 18:12 7,3 C 5,6 C 95 % 991,5 hPa 0,0 l/m 0 min 0 min 0,0 UV-I 0 W/m 5,1 km/h (1 Bft)
04.11.2013 18:14 7,3 C 5,6 C 95 % 991,6 hPa 0,0 l/m 0 min 2 min 0,0 UV-I 0 W/m 23,2 km/h (4 Bft)
04.11.2013 18:16 7,2 C 5,6 C 95 % 991,6 hPa 0,0 l/m 0 min 0 min 0,0 UV-I 0 W/m 10,3 km/h (2 Bft)
04.11.2013 18:18 7,2 C 5,6 C 95 % 991,6 hPa 0,0 l/m 0 min 0 min 0,0 UV-I 0 W/m 0,0 km/h (0 Bft)
04.11.2013 18:20 7,1 C 5,6 C 95 % 991,7 hPa 0,0 l/m 0 min 0 min 0,0 UV-I 0 W/m 0,0 km/h (0 Bft)
04.11.2013 18:22 7,1 C 5,6 C 95 % 991,8 hPa 0,0 l/m 0 min 0 min 0,0 UV-I 0 W/m 0,0 km/h (0 Bft)
04.11.2013 18:24 6,9 C 5,6 C 95 % 991,8 hPa 0,0 l/m 0 min 0 min 0,0 UV-I 0 W/m 0,0 km/h (0 Bft)
04.11.2013 18:26 6,9 C 5,0 C 94 % 991,9 hPa 0,0 l/m 0 min 0 min 0,0 UV-I 0 W/m 0,0 km/h (0 Bft)
04.11.2013 18:28 6,8 C 5,0 C 94 % 992,0 hPa 0,0 l/m 0 min 0 min 0,0 UV-I 0 W/m 0,0 km/h (0 Bft)
04.11.2013 18:30 6,8 C 5,0 C 94 % 992,0 hPa 0,0 l/m 0 min 0 min 0,0 UV-I 0 W/m 0,0 km/h (0 Bft)
04.11.2013 18:32 6,7 C 5,0 C 95 % 992,1 hPa 0,0 l/m 0 min 0 min 0,0 UV-I 0 W/m 0,0 km/h (0 Bft)
04.11.2013 18:34 6,7 C 5,0 C 95 % 992,1 hPa 0,0 l/m 0 min 0 min 0,0 UV-I 0 W/m 0,0 km/h (0 Bft)
04.11.2013 18:36 6,7 C 5,0 C 95 % 992,1 hPa 0,0 l/m 0 min 0 min 0,0 UV-I 0 W/m 0,0 km/h (0 Bft)
04.11.2013 18:38 6,6 C 5,0 C 94 % 992,2 hPa 0,0 l/m 0 min 0 min 0,0 UV-I 0 W/m 0,0 km/h (0 Bft)
04.11.2013 18:40 6,6 C 5,0 C 95 % 992,2 hPa 0,0 l/m 0 min 0 min 0,0 UV-I 0 W/m 0,0 km/h (0 Bft)
04.11.2013 18:42 6,6 C 5,0 C 95 % 992,3 hPa 0,0 l/m 0 min 0 min 0,0 UV-I 0 W/m 0,0 km/h (0 Bft)
04.11.2013 18:44 6,6 C 5,0 C 95 % 992,3 hPa 0,0 l/m 0 min 0 min 0,0 UV-I 0 W/m 0,0 km/h (0 Bft)
04.11.2013 18:46 6,5 C 5,0 C 95 % 992,5 hPa 0,0 l/m 0 min 0 min 0,0 UV-I 0 W/m 0,0 km/h (0 Bft)
04.11.2013 18:48 6,5 C 5,0 C 95 % 992,5 hPa 0,0 l/m 0 min 0 min 0,0 UV-I 0 W/m 7,7 km/h (2 Bft)
04.11.2013 18:50 6,5 C 5,0 C 95 % 992,5 hPa 0,0 l/m 0 min 0 min 0,0 UV-I 0 W/m 2,6 km/h (1 Bft)
04.11.2013 18:52 6,5 C 5,0 C 95 % 992,5 hPa 0,0 l/m 0 min 0 min 0,0 UV-I 0 W/m 0,0 km/h (0 Bft)
04.11.2013 18:54 6,5 C 5,0 C 95 % 992,5 hPa 0,0 l/m 0 min 0 min 0,0 UV-I 0 W/m 0,0 km/h (0 Bft)
04.11.2013 18:56 6,5 C 5,0 C 95 % 992,7 hPa 0,0 l/m 0 min 0 min 0,0 UV-I 0 W/m 7,7 km/h (2 Bft)
04.11.2013 18:58 6,5 C 5,0 C 95 % 992,7 hPa 0,0 l/m 0 min 0 min 0,0 UV-I 0 W/m 5,1 km/h (1 Bft)
04.11.2013 19:00 6,5 C 5,0 C 95 % 992,7 hPa 0,0 l/m 0 min 0 min 0,0 UV-I 0 W/m 0,0 km/h (0 Bft)
04.11.2013 19:02 6,4 C 5,0 C 95 % 992,8 hPa 0,0 l/m 0 min 0 min 0,0 UV-I 0 W/m 10,3 km/h (2 Bft)
04.11.2013 19:04 6,4 C 5,0 C 95 % 992,9 hPa 0,0 l/m 0 min 0 min 0,0 UV-I 0 W/m 0,0 km/h (0 Bft)
04.11.2013 19:06 6,4 C 5,0 C 95 % 992,9 hPa 0,0 l/m 0 min 0 min 0,0 UV-I 0 W/m 0,0 km/h (0 Bft)
04.11.2013 19:08 6,4 C 5,0 C 95 % 993,0 hPa 0,0 l/m 0 min 0 min 0,0 UV-I 0 W/m 5,1 km/h (1 Bft)
04.11.2013 19:10 6,4 C 5,0 C 95 % 993,0 hPa 0,0 l/m 0 min 0 min 0,0 UV-I 0 W/m 0,0 km/h (0 Bft)
04.11.2013 19:12 6,3 C 5,0 C 95 % 993,0 hPa 0,0 l/m 0 min 0 min 0,0 UV-I 0 W/m 2,6 km/h (1 Bft)
04.11.2013 19:14 6,3 C 5,0 C 95 % 993,0 hPa 0,0 l/m 0 min 0 min 0,0 UV-I 0 W/m 7,7 km/h (2 Bft)
04.11.2013 19:16 6,3 C 5,0 C 95 % 993,1 hPa 0,0 l/m 0 min 0 min 0,0 UV-I 0 W/m 2,6 km/h (1 Bft)
04.11.2013 19:18 6,3 C 5,0 C 95 % 993,1 hPa 0,0 l/m 0 min 0 min 0,0 UV-I 0 W/m 7,7 km/h (2 Bft)
04.11.2013 19:20 6,3 C 5,0 C 95 % 993,2 hPa 0,0 l/m 0 min 0 min 0,0 UV-I 0 W/m 0,0 km/h (0 Bft)
04.11.2013 19:22 6,3 C 5,0 C 95 % 993,1 hPa 0,0 l/m 0 min 0 min 0,0 UV-I 0 W/m 0,0 km/h (0 Bft)
04.11.2013 19:24 6,2 C 5,0 C 95 % 993,1 hPa 0,0 l/m 0 min 0 min 0,0 UV-I 0 W/m 0,0 km/h (0 Bft)
04.11.2013 19:26 6,2 C 5,0 C 95 % 993,2 hPa 0,0 l/m 0 min 0 min 0,0 UV-I 0 W/m 7,7 km/h (2 Bft)
04.11.2013 19:28 6,2 C 5,0 C 95 % 993,2 hPa 0,0 l/m 0 min 0 min 0,0 UV-I 0 W/m 7,7 km/h (2 Bft)
04.11.2013 19:30 6,2 C 5,0 C 95 % 993,2 hPa 0,0 l/m 0 min 0 min 0,0 UV-I 0 W/m 5,1 km/h (1 Bft)
04.11.2013 19:32 6,2 C 5,0 C 95 % 993,3 hPa 0,0 l/m 0 min 2 min 0,0 UV-I 0 W/m 0,0 km/h (0 Bft)
04.11.2013 19:34 6,2 C 5,0 C 95 % 993,3 hPa 0,0 l/m 0 min 0 min 0,0 UV-I 0 W/m 5,1 km/h (1 Bft)
04.11.2013 19:36 6,2 C 5,0 C 95 % 993,3 hPa 0,0 l/m 0 min 0 min 0,0 UV-I 0 W/m 7,7 km/h (2 Bft)
04.11.2013 19:38 6,2 C 4,4 C 95 % 993,3 hPa 0,0 l/m 0 min 0 min 0,0 UV-I 0 W/m 0,0 km/h (0 Bft)
04.11.2013 19:40 6,1 C 4,4 C 95 % 993,3 hPa 0,0 l/m 0 min 0 min 0,0 UV-I 0 W/m 0,0 km/h (0 Bft)
04.11.2013 19:42 6,1 C 4,4 C 95 % 993,5 hPa 0,0 l/m 0 min 0 min 0,0 UV-I 0 W/m 0,0 km/h (0 Bft)
04.11.2013 19:44 6,1 C 4,4 C 95 % 993,5 hPa 0,0 l/m 0 min 0 min 0,0 UV-I 0 W/m 2,6 km/h (1 Bft)
04.11.2013 19:46 6,1 C 4,4 C 95 % 993,5 hPa 0,0 l/m 0 min 0 min 0,0 UV-I 0 W/m 0,0 km/h (0 Bft)
04.11.2013 19:48 6,0 C 4,4 C 95 % 993,6 hPa 0,0 l/m 0 min 0 min 0,0 UV-I 0 W/m 5,1 km/h (1 Bft)
04.11.2013 19:50 6,0 C 4,4 C 95 % 993,7 hPa 0,0 l/m 0 min 0 min 0,0 UV-I 0 W/m 2,6 km/h (1 Bft)
04.11.2013 19:52 6,0 C 4,4 C 95 % 993,7 hPa 0,0 l/m 0 min 0 min 0,0 UV-I 0 W/m 7,7 km/h (2 Bft)
04.11.2013 19:54 6,0 C 4,4 C 96 % 993,8 hPa 0,0 l/m 0 min 0 min 0,0 UV-I 0 W/m 0,0 km/h (0 Bft)
04.11.2013 19:56 6,0 C 4,4 C 96 % 993,8 hPa 0,0 l/m 0 min 0 min 0,0 UV-I 0 W/m 5,1 km/h (1 Bft)
04.11.2013 19:58 5,9 C 4,4 C 96 % 993,8 hPa 0,0 l/m 0 min 0 min 0,0 UV-I 0 W/m 0,0 km/h (0 Bft)
04.11.2013 20:00 5,9 C 4,4 C 96 % 993,9 hPa 0,0 l/m 0 min 0 min 0,0 UV-I 0 W/m 5,1 km/h (1 Bft)
04.11.2013 20:02 5,9 C 4,4 C 96 % 993,9 hPa 0,0 l/m 0 min 0 min 0,0 UV-I 0 W/m 0,0 km/h (0 Bft)
04.11.2013 20:04 5,9 C 4,4 C 96 % 993,9 hPa 0,0 l/m 0 min 0 min 0,0 UV-I 0 W/m 0,0 km/h (0 Bft)
04.11.2013 20:06 5,9 C 4,4 C 96 % 993,9 hPa 0,0 l/m 0 min 0 min 0,0 UV-I 0 W/m 7,7 km/h (2 Bft)
04.11.2013 20:08 5,9 C 4,4 C 96 % 993,9 hPa 0,0 l/m 0 min 2 min 0,0 UV-I 0 W/m 2,6 km/h (1 Bft)
04.11.2013 20:10 5,9 C 4,4 C 96 % 994,0 hPa 0,0 l/m 0 min 0 min 0,0 UV-I 0 W/m 5,1 km/h (1 Bft)
04.11.2013 20:12 5,8 C 4,4 C 96 % 993,9 hPa 0,0 l/m 0 min 0 min 0,0 UV-I 0 W/m 2,6 km/h (1 Bft)
04.11.2013 20:14 5,8 C 4,4 C 96 % 993,9 hPa 0,0 l/m 0 min 0 min 0,0 UV-I 0 W/m 10,3 km/h (2 Bft)
04.11.2013 20:16 5,8 C 4,4 C 96 % 994,0 hPa 0,0 l/m 0 min 0 min 0,0 UV-I 0 W/m 2,6 km/h (1 Bft)
04.11.2013 20:18 5,8 C 4,4 C 96 % 993,9 hPa 0,0 l/m 0 min 0 min 0,0 UV-I 0 W/m 0,0 km/h (0 Bft)
04.11.2013 20:20 5,8 C 4,4 C 96 % 993,9 hPa 0,0 l/m 0 min 0 min 0,0 UV-I 0 W/m 10,3 km/h (2 Bft)
04.11.2013 20:22 5,8 C 4,4 C 96 % 994,0 hPa 0,0 l/m 0 min 0 min 0,0 UV-I 0 W/m 5,1 km/h (1 Bft)
04.11.2013 20:24 5,9 C 5,0 C 96 % 993,9 hPa 0,0 l/m 0 min 0 min 0,0 UV-I 0 W/m 0,0 km/h (0 Bft)
04.11.2013 20:26 5,9 C 5,0 C 96 % 994,0 hPa 0,0 l/m 0 min 0 min 0,0 UV-I 0 W/m 5,1 km/h (1 Bft)
04.11.2013 20:28 5,9 C 5,0 C 96 % 994,0 hPa 0,0 l/m 0 min 0 min 0,0 UV-I 0 W/m 15,4 km/h (3 Bft)
04.11.2013 20:30 6,0 C 5,0 C 96 % 994,0 hPa 0,0 l/m 0 min 0 min 0,0 UV-I 0 W/m 2,6 km/h (1 Bft)
04.11.2013 20:32 6,1 C 5,0 C 96 % 994,1 hPa 0,0 l/m 0 min 0 min 0,0 UV-I 0 W/m 7,7 km/h (2 Bft)
04.11.2013 20:34 6,1 C 5,0 C 96 % 994,2 hPa 0,0 l/m 0 min 0 min 0,0 UV-I 0 W/m 12,9 km/h (3 Bft)
04.11.2013 20:36 6,1 C 5,0 C 96 % 994,2 hPa 0,0 l/m 0 min 0 min 0,0 UV-I 0 W/m 7,7 km/h (2 Bft)
04.11.2013 20:38 6,2 C 5,0 C 96 % 994,2 hPa 0,0 l/m 0 min 0 min 0,0 UV-I 0 W/m 2,6 km/h (1 Bft)
04.11.2013 20:40 6,2 C 5,0 C 96 % 994,3 hPa 0,0 l/m 0 min 0 min 0,0 UV-I 0 W/m 2,6 km/h (1 Bft)
04.11.2013 20:42 6,2 C 5,0 C 96 % 994,3 hPa 0,0 l/m 0 min 0 min 0,0 UV-I 0 W/m 2,6 km/h (1 Bft)
04.11.2013 20:44 6,2 C 5,0 C 96 % 994,3 hPa 0,0 l/m 0 min 0 min 0,0 UV-I 0 W/m 10,3 km/h (2 Bft)
04.11.2013 20:46 6,3 C 5,0 C 96 % 994,3 hPa 0,0 l/m 0 min 0 min 0,0 UV-I 0 W/m 7,7 km/h (2 Bft)
04.11.2013 20:48 6,3 C 5,0 C 96 % 994,5 hPa 0,0 l/m 0 min 0 min 0,0 UV-I 0 W/m 10,3 km/h (2 Bft)
04.11.2013 20:50 6,3 C 5,0 C 96 % 994,5 hPa 0,0 l/m 0 min 0 min 0,0 UV-I 0 W/m 5,1 km/h (1 Bft)
04.11.2013 20:52 6,3 C 5,0 C 96 % 994,5 hPa 0,0 l/m 0 min 0 min 0,0 UV-I 0 W/m 7,7 km/h (2 Bft)
04.11.2013 20:54 6,3 C 5,0 C 96 % 994,4 hPa 0,0 l/m 0 min 0 min 0,0 UV-I 0 W/m 10,3 km/h (2 Bft)
04.11.2013 20:56 6,3 C 5,0 C 96 % 994,5 hPa 0,0 l/m 0 min 0 min 0,0 UV-I 0 W/m 12,9 km/h (3 Bft)
04.11.2013 20:58 6,4 C 5,0 C 96 % 994,5 hPa 0,0 l/m 0 min 0 min 0,0 UV-I 0 W/m 10,3 km/h (2 Bft)
04.11.2013 21:00 6,4 C 5,0 C 96 % 994,6 hPa 0,0 l/m 0 min 0 min 0,0 UV-I 0 W/m 10,3 km/h (2 Bft)
04.11.2013 21:02 6,4 C 5,0 C 96 % 994,5 hPa 0,0 l/m 0 min 0 min 0,0 UV-I 0 W/m 0,0 km/h (0 Bft)
04.11.2013 21:04 6,4 C 5,0 C 96 % 994,5 hPa 0,0 l/m 0 min 0 min 0,0 UV-I 0 W/m 18,0 km/h (3 Bft)
04.11.2013 21:06 6,4 C 5,0 C 96 % 994,6 hPa 0,0 l/m 0 min 0 min 0,0 UV-I 0 W/m 12,9 km/h (3 Bft)
04.11.2013 21:08 6,4 C 5,0 C 96 % 994,6 hPa 0,0 l/m 0 min 0 min 0,0 UV-I 0 W/m 15,4 km/h (3 Bft)
04.11.2013 21:10 6,5 C 5,0 C 96 % 994,6 hPa 0,0 l/m 0 min 0 min 0,0 UV-I 0 W/m 10,3 km/h (2 Bft)
04.11.2013 21:12 6,5 C 5,0 C 95 % 994,6 hPa 0,0 l/m 0 min 0 min 0,0 UV-I 0 W/m 5,1 km/h (1 Bft)
04.11.2013 21:14 6,5 C 5,0 C 95 % 994,6 hPa 0,0 l/m 0 min 0 min 0,0 UV-I 0 W/m 12,9 km/h (3 Bft)
04.11.2013 21:16 6,5 C 5,0 C 95 % 994,5 hPa 0,0 l/m 0 min 0 min 0,0 UV-I 0 W/m 7,7 km/h (2 Bft)
04.11.2013 21:18 6,5 C 5,0 C 95 % 994,6 hPa 0,0 l/m 0 min 0 min 0,0 UV-I 0 W/m 5,1 km/h (1 Bft)
04.11.2013 21:20 6,5 C 5,0 C 95 % 994,7 hPa 0,0 l/m 0 min 0 min 0,0 UV-I 0 W/m 12,9 km/h (3 Bft)
04.11.2013 21:22 6,5 C 5,0 C 95 % 994,7 hPa 0,0 l/m 0 min 0 min 0,0 UV-I 0 W/m 15,4 km/h (3 Bft)
04.11.2013 21:24 6,6 C 5,0 C 95 % 994,8 hPa 0,0 l/m 0 min 0 min 0,0 UV-I 0 W/m 2,6 km/h (1 Bft)
04.11.2013 21:26 6,6 C 5,0 C 94 % 994,8 hPa 0,0 l/m 0 min 0 min 0,0 UV-I 0 W/m 0,0 km/h (0 Bft)
04.11.2013 21:28 6,6 C 5,0 C 94 % 994,8 hPa 0,0 l/m 0 min 0 min 0,0 UV-I 0 W/m 5,1 km/h (1 Bft)
04.11.2013 21:30 6,5 C 5,0 C 94 % 994,9 hPa 0,0 l/m 0 min 0 min 0,0 UV-I 0 W/m 2,6 km/h (1 Bft)
04.11.2013 21:32 6,5 C 5,0 C 94 % 994,8 hPa 0,0 l/m 0 min 0 min 0,0 UV-I 0 W/m 7,7 km/h (2 Bft)
04.11.2013 21:34 6,5 C 5,0 C 94 % 994,8 hPa 0,0 l/m 0 min 0 min 0,0 UV-I 0 W/m 7,7 km/h (2 Bft)
04.11.2013 21:36 6,5 C 5,0 C 94 % 994,8 hPa 0,0 l/m 0 min 0 min 0,0 UV-I 0 W/m 10,3 km/h (2 Bft)
04.11.2013 21:38 6,5 C 5,0 C 94 % 994,9 hPa 0,0 l/m 0 min 0 min 0,0 UV-I 0 W/m 2,6 km/h (1 Bft)
04.11.2013 21:40 6,5 C 5,0 C 94 % 994,9 hPa 0,0 l/m 0 min 0 min 0,0 UV-I 0 W/m 2,6 km/h (1 Bft)
04.11.2013 21:42 6,5 C 5,0 C 94 % 994,9 hPa 0,0 l/m 0 min 0 min 0,0 UV-I 0 W/m 0,0 km/h (0 Bft)
04.11.2013 21:44 6,5 C 5,0 C 94 % 995,0 hPa 0,0 l/m 0 min 0 min 0,0 UV-I 0 W/m 0,0 km/h (0 Bft)
04.11.2013 21:46 6,5 C 5,0 C 94 % 994,9 hPa 0,0 l/m 0 min 0 min 0,0 UV-I 0 W/m 10,3 km/h (2 Bft)
04.11.2013 21:48 6,5 C 5,0 C 94 % 995,0 hPa 0,0 l/m 0 min 0 min 0,0 UV-I 0 W/m 18,0 km/h (3 Bft)
04.11.2013 21:50 6,5 C 5,0 C 94 % 994,9 hPa 0,0 l/m 0 min 0 min 0,0 UV-I 0 W/m 7,7 km/h (2 Bft)
04.11.2013 21:52 6,6 C 5,0 C 94 % 995,0 hPa 0,0 l/m 0 min 0 min 0,0 UV-I 0 W/m 2,6 km/h (1 Bft)
04.11.2013 21:54 6,6 C 5,0 C 94 % 995,1 hPa 0,0 l/m 0 min 0 min 0,0 UV-I 0 W/m 10,3 km/h (2 Bft)
04.11.2013 21:56 6,6 C 5,6 C 94 % 995,1 hPa 0,0 l/m 0 min 0 min 0,0 UV-I 0 W/m 18,0 km/h (3 Bft)
04.11.2013 21:58 6,6 C 5,6 C 93 % 995,0 hPa 0,0 l/m 0 min 0 min 0,0 UV-I 0 W/m 12,9 km/h (3 Bft)
04.11.2013 22:00 6,6 C 5,6 C 93 % 995,2 hPa 0,0 l/m 0 min 0 min 0,0 UV-I 0 W/m 10,3 km/h (2 Bft)
04.11.2013 22:02 6,6 C 5,6 C 93 % 995,1 hPa 0,0 l/m 0 min 0 min 0,0 UV-I 0 W/m 15,4 km/h (3 Bft)
04.11.2013 22:04 6,7 C 5,6 C 93 % 995,2 hPa 0,0 l/m 0 min 0 min 0,0 UV-I 0 W/m 10,3 km/h (2 Bft)
04.11.2013 22:06 6,7 C 5,6 C 93 % 995,1 hPa 0,0 l/m 0 min 0 min 0,0 UV-I 0 W/m 10,3 km/h (2 Bft)
04.11.2013 22:08 6,7 C 5,6 C 93 % 995,1 hPa 0,0 l/m 0 min 0 min 0,0 UV-I 0 W/m 18,0 km/h (3 Bft)
04.11.2013 22:10 6,7 C 5,6 C 93 % 995,2 hPa 0,0 l/m 0 min 0 min 0,0 UV-I 0 W/m 7,7 km/h (2 Bft)
04.11.2013 22:12 6,7 C 5,6 C 93 % 995,2 hPa 0,0 l/m 0 min 0 min 0,0 UV-I 0 W/m 12,9 km/h (3 Bft)
04.11.2013 22:14 6,7 C 5,6 C 93 % 995,3 hPa 0,0 l/m 0 min 0 min 0,0 UV-I 0 W/m 10,3 km/h (2 Bft)
04.11.2013 22:16 6,7 C 5,6 C 93 % 995,2 hPa 0,0 l/m 0 min 0 min 0,0 UV-I 0 W/m 5,1 km/h (1 Bft)
04.11.2013 22:18 6,7 C 5,6 C 93 % 995,3 hPa 0,0 l/m 0 min 0 min 0,0 UV-I 0 W/m 15,4 km/h (3 Bft)
04.11.2013 22:20 6,7 C 5,6 C 93 % 995,3 hPa 0,0 l/m 0 min 0 min 0,0 UV-I 0 W/m 20,6 km/h (4 Bft)
04.11.2013 22:22 6,7 C 5,6 C 93 % 995,3 hPa 0,0 l/m 0 min 0 min 0,0 UV-I 0 W/m 10,3 km/h (2 Bft)
04.11.2013 22:24 6,7 C 5,6 C 92 % 995,4 hPa 0,0 l/m 0 min 0 min 0,0 UV-I 0 W/m 10,3 km/h (2 Bft)
04.11.2013 22:26 6,7 C 5,6 C 92 % 995,4 hPa 0,0 l/m 0 min 0 min 0,0 UV-I 0 W/m 15,4 km/h (3 Bft)
04.11.2013 22:28 6,7 C 5,6 C 92 % 995,4 hPa 0,0 l/m 0 min 0 min 0,0 UV-I 0 W/m 7,7 km/h (2 Bft)
04.11.2013 22:30 6,7 C 5,6 C 92 % 995,3 hPa 0,0 l/m 0 min 0 min 0,0 UV-I 0 W/m 12,9 km/h (3 Bft)
04.11.2013 22:32 6,7 C 5,6 C 92 % 995,3 hPa 0,0 l/m 0 min 0 min 0,0 UV-I 0 W/m 10,3 km/h (2 Bft)
04.11.2013 22:34 6,7 C 5,6 C 92 % 995,4 hPa 0,0 l/m 0 min 0 min 0,0 UV-I 0 W/m 12,9 km/h (3 Bft)
04.11.2013 22:36 6,7 C 5,6 C 92 % 995,5 hPa 0,0 l/m 0 min 0 min 0,0 UV-I 0 W/m 7,7 km/h (2 Bft)
04.11.2013 22:38 6,7 C 5,6 C 92 % 995,6 hPa 0,0 l/m 0 min 0 min 0,0 UV-I 0 W/m 20,6 km/h (4 Bft)
04.11.2013 22:40 6,7 C 5,6 C 92 % 995,4 hPa 0,0 l/m 0 min 0 min 0,0 UV-I 0 W/m 18,0 km/h (3 Bft)
04.11.2013 22:42 6,7 C 5,6 C 92 % 995,5 hPa 0,0 l/m 0 min 0 min 0,0 UV-I 0 W/m 10,3 km/h (2 Bft)
04.11.2013 22:44 6,7 C 5,6 C 92 % 995,5 hPa 0,0 l/m 0 min 0 min 0,0 UV-I 0 W/m 15,4 km/h (3 Bft)
04.11.2013 22:46 6,7 C 5,6 C 92 % 995,5 hPa 0,0 l/m 0 min 2 min 0,0 UV-I 0 W/m 10,3 km/h (2 Bft)
04.11.2013 22:48 6,7 C 5,6 C 92 % 995,5 hPa 0,0 l/m 0 min 2 min 0,0 UV-I 0 W/m 15,4 km/h (3 Bft)
04.11.2013 22:50 6,7 C 5,6 C 92 % 995,5 hPa 0,0 l/m 0 min 2 min 0,0 UV-I 0 W/m 12,9 km/h (3 Bft)
04.11.2013 22:52 6,7 C 5,6 C 92 % 995,5 hPa 0,0 l/m 0 min 2 min 0,0 UV-I 0 W/m 15,4 km/h (3 Bft)
04.11.2013 22:54 6,7 C 5,0 C 92 % 995,6 hPa 0,0 l/m 0 min 2 min 0,0 UV-I 0 W/m 10,3 km/h (2 Bft)
04.11.2013 22:56 6,7 C 5,0 C 92 % 995,6 hPa 0,0 l/m 0 min 2 min 0,0 UV-I 0 W/m 12,9 km/h (3 Bft)
04.11.2013 22:58 6,7 C 5,0 C 92 % 995,6 hPa 0,0 l/m 0 min 0 min 0,0 UV-I 0 W/m 12,9 km/h (3 Bft)
04.11.2013 23:00 6,7 C 5,0 C 92 % 995,7 hPa 0,0 l/m 0 min 0 min 0,0 UV-I 0 W/m 18,0 km/h (3 Bft)
04.11.2013 23:02 6,7 C 5,0 C 92 % 995,7 hPa 0,0 l/m 0 min 0 min 0,0 UV-I 0 W/m 12,9 km/h (3 Bft)
04.11.2013 23:04 6,7 C 5,0 C 92 % 995,7 hPa 0,0 l/m 0 min 2 min 0,0 UV-I 0 W/m 7,7 km/h (2 Bft)
04.11.2013 23:06 6,6 C 5,0 C 92 % 995,7 hPa 0,0 l/m 0 min 2 min 0,0 UV-I 0 W/m 15,4 km/h (3 Bft)
04.11.2013 23:08 6,6 C 5,0 C 93 % 995,8 hPa 0,0 l/m 0 min 2 min 0,0 UV-I 0 W/m 12,9 km/h (3 Bft)
04.11.2013 23:10 6,6 C 5,0 C 93 % 995,8 hPa 0,0 l/m 0 min 2 min 0,0 UV-I 0 W/m 10,3 km/h (2 Bft)
04.11.2013 23:12 6,6 C 5,0 C 93 % 995,8 hPa 0,0 l/m 0 min 2 min 0,0 UV-I 0 W/m 10,3 km/h (2 Bft)
04.11.2013 23:14 6,6 C 5,0 C 93 % 995,8 hPa 0,0 l/m 0 min 2 min 0,0 UV-I 0 W/m 2,6 km/h (1 Bft)
04.11.2013 23:16 6,6 C 5,0 C 93 % 995,9 hPa 0,0 l/m 0 min 2 min 0,0 UV-I 0 W/m 15,4 km/h (3 Bft)
04.11.2013 23:18 6,6 C 5,0 C 93 % 995,9 hPa 0,0 l/m 0 min 2 min 0,0 UV-I 0 W/m 18,0 km/h (3 Bft)
04.11.2013 23:20 6,6 C 5,0 C 93 % 995,9 hPa 0,0 l/m 0 min 2 min 0,0 UV-I 0 W/m 15,4 km/h (3 Bft)
04.11.2013 23:22 6,5 C 5,0 C 93 % 995,9 hPa 0,0 l/m 0 min 2 min 0,0 UV-I 0 W/m 7,7 km/h (2 Bft)
04.11.2013 23:24 6,5 C 5,0 C 93 % 995,9 hPa 0,0 l/m 0 min 2 min 0,0 UV-I 0 W/m 12,9 km/h (3 Bft)
04.11.2013 23:26 6,5 C 5,0 C 93 % 995,9 hPa 0,0 l/m 0 min 0 min 0,0 UV-I 0 W/m 15,4 km/h (3 Bft)
04.11.2013 23:28 6,5 C 5,0 C 93 % 995,9 hPa 0,0 l/m 0 min 0 min 0,0 UV-I 0 W/m 12,9 km/h (3 Bft)
04.11.2013 23:30 6,4 C 5,0 C 93 % 995,9 hPa 0,0 l/m 0 min 0 min 0,0 UV-I 0 W/m 7,7 km/h (2 Bft)
04.11.2013 23:32 6,4 C 5,0 C 93 % 996,0 hPa 0,0 l/m 0 min 0 min 0,0 UV-I 0 W/m 12,9 km/h (3 Bft)
04.11.2013 23:34 6,4 C 5,0 C 93 % 995,9 hPa 0,0 l/m 0 min 0 min 0,0 UV-I 0 W/m 18,0 km/h (3 Bft)
04.11.2013 23:36 6,4 C 5,0 C 93 % 995,9 hPa 0,0 l/m 0 min 0 min 0,0 UV-I 0 W/m 18,0 km/h (3 Bft)
04.11.2013 23:38 6,4 C 5,0 C 93 % 996,0 hPa 0,0 l/m 0 min 2 min 0,0 UV-I 0 W/m 10,3 km/h (2 Bft)
04.11.2013 23:40 6,5 C 5,0 C 94 % 996,0 hPa 0,0 l/m 0 min 2 min 0,0 UV-I 0 W/m 10,3 km/h (2 Bft)
04.11.2013 23:42 6,5 C 5,0 C 94 % 996,1 hPa 0,0 l/m 0 min 2 min 0,0 UV-I 0 W/m 5,1 km/h (1 Bft)
04.11.2013 23:44 6,5 C 5,0 C 94 % 996,1 hPa 0,0 l/m 0 min 2 min 0,0 UV-I 0 W/m 7,7 km/h (2 Bft)
04.11.2013 23:46 6,5 C 5,0 C 94 % 996,1 hPa 0,2 l/m 0 min 2 min 0,0 UV-I 0 W/m 15,4 km/h (3 Bft)
04.11.2013 23:48 6,4 C 5,0 C 94 % 996,2 hPa 0,0 l/m 0 min 2 min 0,0 UV-I 0 W/m 15,4 km/h (3 Bft)
04.11.2013 23:50 6,4 C 5,0 C 94 % 996,1 hPa 0,0 l/m 0 min 2 min 0,0 UV-I 0 W/m 10,3 km/h (2 Bft)
04.11.2013 23:52 6,4 C 5,0 C 94 % 996,2 hPa 0,0 l/m 0 min 2 min 0,0 UV-I 0 W/m 5,1 km/h (1 Bft)
04.11.2013 23:54 6,4 C 5,0 C 94 % 996,2 hPa 0,0 l/m 0 min 0 min 0,0 UV-I 0 W/m 10,3 km/h (2 Bft)
04.11.2013 23:56 6,4 C 5,0 C 94 % 996,2 hPa 0,0 l/m 0 min 0 min 0,0 UV-I 0 W/m 15,4 km/h (3 Bft)
04.11.2013 23:58 6,4 C 5,0 C 94 % 996,2 hPa 0,0 l/m 0 min 2 min 0,0 UV-I 0 W/m 10,3 km/h (2 Bft)
_ Min-Zeit 20:12 19:38 11:46 12:46 - - - - - 00:22
Minimum _ 5,8 C 4,4 C 79 % 982,8 hPa - - - - - 0,0 km/h (0 Bft)
_ Max-Zeit 11:40 11:34 04:10 00:00 01:56 10:52 01:38 00:00 11:34 09:58
Maximum _ 14,9 C 13,3 C 96 % 999,6 hPa 0,2 l/m 2 min 2 min 0,0 UV-I 504 W/m 48,9 km/h
S (6 Bft)
Durchschnitt _ 9,2 C 7,6 C 92 % 989,3 hPa #6,6 l/m #30 min. #8:24 h 0,0 UV-I 81 W/m 15,8 km/h (3 Bft)
© 2013 W. Hausmann